                ,  0.482,  0.579,  0.676,  0.773,  0.870,  0.967,  1.064,  1.161,  1.258,  1.354,  1.451,  1.548,  1.645,  1.742,  1.839,  1.936,  2.033,  2.130,  2.227,  2.324,  2.421,  2.518,  2.615,  2.712,  2.809,  2.906,  3.003,  3.099,  3.196,  3.293,  3.390,  3.487,  3.584,  3.681,  3.778,  3.875,  3.972,  4.069,  4.166,  4.263,  4.360,  4.457,  4.554,  4.651,  4.748,  4.844,  4.941,  5.038,  5.135,  5.232,  5.329,  5.426,  5.523,  5.620,  5.717,  5.814,  5.911,  6.008,  6.105,  6.202,  6.299,  6.396,  6.493,  6.589,  6.686,  6.783,  6.880,  6.977,  7.074,  7.171,  7.268,  7.365,  7.462,  7.559,  7.656,  7.753,  7.850,  7.947,  8.044,  8.141
2007/09/23 00:00,   -0.1,   -1.2,   -0.8,   -0.2,  999.0,  999.0,  999.0,  999.0,  999.0,  999.0,  999.0,  999.0,  999.0,   -1.9,  999.0,  999.0,  999.0,  999.0,  999.0,  999.0,  999.0,  999.0,  999.0,  999.0,  999.0,  999.0,  999.0,  999.0,  999.0,   -5.1,  999.0,  999.0,   -1.0,   -0.0,  999.0,    2.4,  999.0,    4.4,    4.0,  999.0,  999.0,  999.0,  999.0,  999.0,   -0.0,    0.5,    0.0,   -0.0,    0.0,    0.3,    0.2,    0.0,   -0.1,   -0.0,   -0.2,   -0.8,   -0.7,   -0.3,   -0.1,   -0.1,   -0.1,    0.0,   -0.2,   -0.1,   -0.1,   -0.1,    0.0,    0.0,    0.1,    0.0,    0.1,    0.0,   -0.1,    0.0,    0.0,   -0.1,    0.2,   -0.2,   -0.0,   -0.0
2007/09/23 00:10,   -0.1,   -0.9,   -0.9,   -0.4,  999.0,  999.0,  999.0,  999.0,  999.0,  999.0,  999.0,  999.0,  999.0,  999.0,  999.0,  999.0,  999.0,  999.0,  999.0,  999.0,  999.0,  999.0,  999.0,  999.0,  999.0,  999.0,  999.0,  999.0,  999.0,   -0.2,   -0.4,  999.0,  999.0,  999.0,  999.0,    5.1,  999.0,    3.3,    3.7,  999.0,  999.0,  999.0,  999.0,    0.0,   -0.0,    0.1,    0.0,    0.0,    0.1,    0.0,    0.1,   -0.3,    0.1,  999.0,  999.0,   -0.0,   -0.4,   -0.8,   -1.0,   -0.3,   -0.0,  999.0,    0.1,   -0.3,   -0.0,   -0.2,   -0.0,   -0.0,   -0.1,   -0.0,    0.0,  999.0,   -0.0,   -0.1,   -0.1,    0.1,    0.0,   -0.0,    0.1,   -0.1
2007/09/23 00:20,  999.0,  999.0,   -1.9,   -0.2,  999.0,    1.0,  999.0,  999.0,  999.0,  999.0,  999.0,  999.0,  999.0,  999.0,  999.0,  999.0,  999.0,  999.0,  999.0,  999.0,  999.0,  999.0,  999.0,  999.0,  999.0,  999.0,   -5.2,  999.0,  999.0,   -6.8,  999.0,  999.0,  999.0,  999.0,  999.0,  999.0,  999.0,    3.7,    4.0,  999.0,  999.0,  999.0,  999.0,    1.2,    0.6,  999.0,    0.0,    0.0,  999.0,   -0.1,    0.0,   -0.1,    0.1,    0.0,    0.0,    0.0,   -0.1,   -0.6,   -0.4,   -0.3,    0.0,    0.1,  999.0,    0.0,  999.0,    0.0,   -0.0,    0.0,   -0.0,   -0.0,   -0.0,   -0.0,   -0.0,   -0.0,    0.0,    0.0,    0.0,    0.0,    0.0,  999.0
2007/09/23 00:30,  999.0,  999.0,  999.0,  999.0,  999.0,    0.5,  999.0,  999.0,  999.0,  999.0,  999.0,  999.0,  999.0,  999.0,  999.0,  999.0,  999.0,  999.0,  999.0,  999.0,  999.0,  999.0,  999.0,  999.0,  999.0,  999.0,  999.0,  999.0,  999.0,  999.0,  999.0,  999.0,    0.6,    0.9,    4.1,    5.3,    5.2,    4.1,    3.8,  999.0,  999.0,    2.2,    3.5,  999.0,    0.1,    0.0,   -0.1,   -0.0,   -0.0,   -0.0,   -0.0,   -0.0,    0.1,   -0.1,   -0.1,   -0.1,   -0.3,   -0.7,   -0.4,   -0.5,   -0.0,   -0.0,   -0.0,    0.0,    0.0,  999.0,  999.0,   -0.1,    0.0,    0.1,   -0.0,    0.0,   -0.0,    0.0,   -0.1,    0.0,    0.1,    0.0,   -0.1,   -0.0
2007/09/23 00:40,  999.0,  999.0,  999.0,   -1.0,  999.0,  999.0,    1.0,    2.1,  999.0,  999.0,    1.7,  999.0,  999.0,  999.0,  999.0,  999.0,  999.0,  999.0,  999.0,  999.0,  999.0,  999.0,   -0.4,  999.0,  999.0,  999.0,  999.0,  999.0,  999.0,  999.0,  999.0,  999.0,    0.2,    0.4,    3.9,    5.6,  999.0,  999.0,  999.0,  999.0,  999.0,  999.0,  999.0,  999.0,   -0.0,  999.0,    0.1,    0.2,   -0.0,    0.1,    0.1,    0.1,    0.1,    0.0,  999.0,    0.0,   -0.0,   -0.6,   -0.5,  999.0,   -0.0,   -0.0,    0.1,   -0.0,    0.1,   -0.0,    0.0,    0.1,   -0.1,   -0.0,    0.0,   -0.0,    0.1,    0.1,   -0.1,    0.0,    0.0,   -0.0,    0.0,   -0.0
2007/09/23 00:50,   -0.6,  999.0,  999.0,  999.0,   -0.3,  999.0,  999.0,  999.0,    2.8,    2.5,    1.6,    1.3,  999.0,  999.0,  999.0,  999.0,  999.0,  999.0,  999.0,  999.0,  999.0,  999.0,   -5.1,  999.0,  999.0,  999.0,  999.0,  999.0,  999.0,  999.0,  999.0,  999.0,  999.0,  999.0,    4.4,    5.8,    6.7,  999.0,  999.0,  999.0,  999.0,  999.0,    2.6,   -0.0,    0.1,   -0.0,    0.1,   -0.0,    0.0,  999.0,    0.0,    0.1,   -0.1,    0.2,   -0.0,   -0.0,  999.0,   -0.9,   -0.5,   -0.2,   -0.1,   -0.1,    0.0,   -0.0,    0.1,  999.0,   -0.0,   -0.1,    0.1,    0.1,  999.0,  999.0,    0.0,    0.0,   -0.2,   -0.0,   -0.1,   -0.1,    0.0,   -0.0
2007/09/23 01:00,   -0.7,   -0.6,   -0.9,  999.0,  999.0,  999.0,  999.0,  999.0,  999.0,  999.0,    1.2,  999.0,  999.0,  999.0,  999.0,  999.0,  999.0,  999.0,  999.0,  999.0,  999.0,  999.0,  999.0,  999.0,  999.0,  999.0,  999.0,  999.0,  999.0,  999.0,  999.0,    0.7,  999.0,    2.5,    4.3,  999.0,  999.0,  999.0,  999.0,    2.9,  999.0,    0.1,    2.7,    0.1,    0.1,   -0.2,    0.0,  999.0,  999.0,  999.0,  999.0,  999.0,   -4.0,    0.1,  999.0,   -0.0,   -0.1,   -0.4,  999.0,    0.0,  999.0,   -0.0,  999.0,  999.0,    0.1,    0.0,   -0.1,   -0.0,   -0.1,   -0.1,  999.0,  999.0,   -0.0,  999.0,  999.0,  999.0,   -0.1,    0.0,  999.0,    0.0
2007/09/23 01:10,  999.0,  999.0,  999.0,   -0.4,  999.0,  999.0,  999.0,    2.7,    2.7,    2.3,    1.1,    0.8,  999.0,  999.0,  999.0,  999.0,  999.0,  999.0,  999.0,  999.0,  999.0,  999.0,  999.0,   -2.6,  999.0,  999.0,  999.0,  999.0,   -2.8,   -1.4,  999.0,  999.0,  999.0,    3.2,    4.6,  999.0,  999.0,  999.0,    3.6,  999.0,    0.1,  999.0,  999.0,   -0.0,  999.0,    0.0,    0.0,    0.0,   -0.0,   -0.0,    0.0,  999.0,    0.0,   -0.0,   -0.0,   -0.0,   -0.2,   -0.2,   -0.2,   -0.1,    0.0,   -0.1,   -0.2,   -0.0,   -0.0,    0.0,   -0.1,   -0.1,    0.0,   -0.1,   -0.0,    0.0,    0.0,   -0.1,    0.1,   -0.0,    0.0,   -0.0,   -0.0,   -0.0
2007/09/23 01:20,   -0.7,  999.0,  999.0,  999.0,  999.0,  999.0,  999.0,  999.0,  999.0,  999.0,  999.0,  999.0,  999.0,  999.0,  999.0,  999.0,  999.0,  999.0,  999.0,  999.0,  999.0,  999.0,  999.0,  999.0,   -5.9,  999.0,  999.0,  999.0,   -2.0,   -1.3,  999.0,  999.0,    1.3,    3.0,    4.5,  999.0,  999.0,    4.1,    3.3,    2.7,  999.0,  999.0,    1.9,  999.0,  999.0,   -0.0,   -0.0,    0.2,   -0.1,  999.0,    0.0,   -0.0,    0.0,    0.1,   -0.0,   -0.0,   -0.3,   -0.7,  999.0,  999.0,  999.0,   -0.1,   -0.1,   -0.0,    0.1,    0.0,    0.1,  999.0,    0.1,  999.0,    0.0,  999.0,  999.0,   -0.1,   -0.0,   -0.1,  999.0,    0.0,  999.0,   -0.0
2007/09/23 01:30,  999.0,  999.0,  999.0,  999.0,  999.0,  999.0,  999.0,  999.0,  999.0,  999.0,    1.1,    0.2,  999.0,  999.0,  999.0,  999.0,  999.0,  999.0,  999.0,  999.0,   -2.6,  999.0,   -5.0,  999.0,  999.0,   -7.9,  999.0,  999.0,  999.0,  999.0,  999.0,  999.0,  999.0,    2.3,    4.0,    5.4,  999.0,    3.4,    3.0,    3.3,  999.0,  999.0,  999.0,  999.0,   -0.0,  999.0,    0.1,   -0.1,  999.0,   -0.1,  999.0,    0.0,   -0.0,  999.0,  999.0,   -0.1,   -0.2,   -0.3,   -0.0,   -0.0,    0.2,    0.0,   -0.0,  999.0,   -0.1,    0.0,    0.1,    0.0,   -0.0,   -0.0,    0.1,    0.0,  999.0,   -0.0,    0.0,   -0.1,    0.0,    0.1,   -0.0,    0.0
2007/09/23 01:40,   -0.4,   -0.2,   -0.0,   -0.0,  999.0,  999.0,    1.1,  999.0,  999.0,    0.8,    0.3,  999.0,    0.1,  999.0,  999.0,  999.0,   -0.0,  999.0,  999.0,  999.0,  999.0,  999.0,  999.0,  999.0,  999.0,  999.0,  999.0,   -3.9,   -0.9,   -0.5,    1.0,    1.1,  999.0,    1.8,    3.3,    5.0,    5.6,  999.0,    2.8,    3.3,  999.0,  999.0,  999.0,  999.0,    0.1,    0.0,   -0.1,   -0.0,   -0.0,   -0.1,   -0.0,    0.1,  999.0,   -0.0,   -0.0,   -0.4,   -0.5,   -0.2,   -0.2,   -0.2,    0.0,    0.0,  999.0,   -0.0,  999.0,    0.0,    0.2,   -0.0,   -0.2,    0.0,  999.0,   -0.0,    0.1,   -0.0,  999.0,  999.0,  999.0,    0.1,    0.0,   -0.0
2007/09/23 01:50,  999.0,  999.0,  999.0,    0.7,  999.0,    1.0,    1.7,  999.0,  999.0,  999.0,   -0.5,   -0.2,  999.0,  999.0,  999.0,  999.0,  999.0,  999.0,  999.0,   -3.0,  999.0,  999.0,  999.0,  999.0,   -2.8,   -3.8,  999.0,   -3.5,   -0.6,   -0.5,    0.4,    1.6,  999.0,    2.3,    3.3,    4.7,    5.6,  999.0,    3.2,    3.3,  999.0,    2.2,    2.6,    0.8,   -0.0,  999.0,   -0.0,    0.0,    0.2,  999.0,  999.0,   -0.1,    0.0,   -0.0,    0.0,   -0.3,   -0.2,   -0.3,   -0.1,   -0.3,    0.1,    0.1,    0.0,    0.0,   -0.0,    0.2,   -0.0,    0.1,    0.0,   -0.1,   -0.0,   -0.0,   -0.0,    0.1,    0.0,   -0.0,   -0.0,    0.1,    0.0,    0.0
2007/09/23 02:00,   -0.2,    0.0,    0.5,    1.1,  999.0,    1.4,  999.0,  999.0,  999.0,    1.0,  999.0,  999.0,  999.0,  999.0,  999.0,  999.0,  999.0,  999.0,  999.0,  999.0,  999.0,  999.0,  999.0,  999.0,  999.0,  999.0,   -4.0,   -4.8,  999.0,  999.0,  999.0,  999.0,  999.0,    2.7,    3.6,  999.0,  999.0,    3.0,    2.8,    2.8,  999.0,  999.0,    2.7,    1.0,    0.2,   -0.0,    0.0,   -0.0,   -0.0,   -0.1,   -0.0,    0.0,    0.0,    0.1,   -0.1,   -0.4,   -0.4,   -0.2,   -0.1,    0.0,   -0.0,   -0.0,   -0.0,    0.0,   -0.1,   -0.1,    0.0,    0.1,    0.1,    0.0,   -0.0,   -0.1,    0.1,    0.1,   -0.0,   -0.0,    0.0,    0.1,    0.0,   -0.0
2007/09/23 02:10,  999.0,    0.1,    0.4,    1.3,    0.4,  999.0,  999.0,  999.0,  999.0,  999.0,  999.0,  999.0,  999.0,  999.0,  999.0,  999.0,  999.0,  999.0,  999.0,  999.0,  999.0,  999.0,  999.0,  999.0,  999.0,  999.0,  999.0,   -3.3,  999.0,   -1.9,  999.0,   -0.5,    0.0,    0.8,    2.4,    3.7,    3.9,    2.6,    1.5,    1.7,  999.0,    0.1,    1.3,    1.0,    0.0,    0.0,   -0.0,   -0.0,   -0.0,  999.0,   -0.0,    0.0,    0.1,   -0.0,    0.0,   -0.2,   -0.0,   -0.3,   -0.0,   -0.0,   -0.1,    0.1,  999.0,  999.0,    0.0,  999.0,  999.0,    0.0,    0.0,    0.1,   -0.0,    0.0,    0.0,   -0.0,    0.1,   -0.1,   -0.1,    0.0,    0.0,    0.0
2007/09/23 02:20,   -0.1,  999.0,  999.0,  999.0,  999.0,  999.0,  999.0,  999.0,  999.0,  999.0,    0.3,  999.0,  999.0,  999.0,  999.0,  999.0,  999.0,  999.0,  999.0,  999.0,  999.0,  999.0,  999.0,  999.0,   -1.8,  999.0,  999.0,  999.0,   -1.2,   -0.3,    0.4,    0.8,    0.2,    0.6,    1.9,  999.0,    4.0,    4.0,  999.0,  999.0,    0.4,    0.0,    1.3,    1.3,    0.3,   -0.0,    0.0,  999.0,    0.0,  999.0,    0.1,   -0.0,  999.0,  999.0,    0.0,   -0.0,   -0.0,   -0.0,    0.1,    0.2,  999.0,  999.0,  999.0,  999.0,    0.0,   -0.0,    0.1,   -0.1,    0.1,  999.0,   -0.0,   -0.0,   -0.0,   -0.1,   -0.0,   -0.0,   -0.0,  999.0,    0.0,  999.0
2007/09/23 02:30,   -0.0,  999.0,  999.0,  999.0,  999.0,  999.0,  999.0,  999.0,  999.0,  999.0,  999.0,  999.0,  999.0,  999.0,  999.0,  999.0,  999.0,  999.0,  999.0,  999.0,  999.0,  999.0,  999.0,  999.0,  999.0,  999.0,  999.0,  999.0,   -0.4,  999.0,  999.0,    0.2,    0.3,    0.4,    1.2,  999.0,    2.3,    3.2,    2.8,    0.4,    0.6,    0.6,  999.0,    0.0,  999.0,    0.1,   -0.1,   -0.0,    0.0,    0.0,   -0.1,   -0.1,   -0.0,   -0.0,    0.0,    0.0,    0.0,  999.0,  999.0,    0.0,   -0.0,  999.0,   -0.0,   -0.0,    0.0,   -0.1,    0.0,   -0.0,   -0.1,    0.0,    0.0,   -0.0,    0.0,    0.0,   -0.0,    0.1,   -0.0,   -0.0,   -0.0,  999.0
2007/09/23 02:40,   -0.1,  999.0,   -0.9,   -0.1,  999.0,  999.0,  999.0,  999.0,  999.0,  999.0,  999.0,  999.0,  999.0,  999.0,   -0.8,  999.0,  999.0,   -3.8,  999.0,  999.0,  999.0,  999.0,  999.0,  999.0,  999.0,   -6.2,  999.0,   -4.9,  999.0,  999.0,  999.0,    0.2,    0.5,    0.5,    0.7,    2.2,  999.0,    3.7,    4.0,    1.0,    0.9,    1.9,    2.4,    0.2,   -0.1,   -0.1,   -0.1,   -0.0,   -0.1,   -0.2,   -0.2,   -0.1,   -0.0,   -0.1,   -0.2,   -0.2,   -0.3,  999.0,   -0.1,    0.0,   -0.1,   -0.0,    0.0,   -0.0,   -0.0,   -0.0,   -0.0,   -0.0,   -0.0,    0.0,   -0.0,   -0.0,   -0.0,    0.0,    0.0,    0.0,   -0.0,   -0.0,   -0.0,    0.1
2007/09/23 02:50,  999.0,  999.0,   -0.2,  999.0,  999.0,  999.0,  999.0,  999.0,  999.0,  999.0,  999.0,  999.0,  999.0,  999.0,  999.0,  999.0,  999.0,  999.0,  999.0,  999.0,  999.0,  999.0,  999.0,  999.0,  999.0,  999.0,  999.0,  999.0,  999.0,  999.0,  999.0,  999.0,    0.6,    0.9,    1.0,    2.4,  999.0,    4.1,    4.5,    1.9,    1.3,    2.2,    1.6,    0.1,    0.1,   -0.3,    0.0,   -0.0,   -0.2,   -0.4,  999.0,   -0.5,   -0.1,    0.0,    0.0,    0.1,  999.0,   -0.2,  999.0,  999.0,   -0.1,   -0.0,    0.1,   -0.1,   -0.0,   -0.0,   -0.0,    0.0,   -0.0,  999.0,   -0.1,    0.0,   -0.0,    0.0,   -0.1,    0.0,    0.0,   -0.0,    0.0,    0.3
2007/09/23 03:00,    0.0,   -0.3,    0.1,  999.0,  999.0,  999.0,  999.0,  999.0,   -2.4,  999.0,  999.0,   -1.0,  999.0,  999.0,  999.0,  999.0,  999.0,  999.0,  999.0,  999.0,  999.0,  999.0,  999.0,  999.0,  999.0,  999.0,  999.0,  999.0,  999.0,  999.0,  999.0,  999.0,    0.8,    0.9,    1.3,    2.9,    4.2,    4.2,    3.0,    1.5,    1.5,    1.9,    1.0,  999.0,   -0.2,  999.0,    0.0,   -0.5,  999.0,   -0.4,   -0.0,  999.0,    0.1,   -0.0,    0.0,  999.0,   -0.0,   -0.2,   -0.0,  999.0,  999.0,  999.0,  999.0,  999.0,   -0.0,   -0.0,    0.0,  999.0,    0.0,  999.0,   -0.0,   -0.0,    0.2,   -0.0,   -0.0,    0.0,   -0.0,   -0.0,    0.0,    0.0
2007/09/23 03:10,   -0.1,  999.0,  999.0,  999.0,  999.0,  999.0,  999.0,  999.0,  999.0,  999.0,  999.0,  999.0,  999.0,  999.0,  999.0,  999.0,  999.0,  999.0,  999.0,   -4.3,  999.0,  999.0,  999.0,  999.0,  999.0,  999.0,  999.0,  999.0,  999.0,  999.0,  999.0,    0.8,    1.7,    1.1,    0.3,    1.8,    3.4,    3.5,    3.8,    1.4,    0.8,    1.3,    0.2,   -0.0,   -0.1,   -0.1,   -0.1,   -0.4,   -0.7,  999.0,   -0.1,    0.0,   -0.0,   -0.1,   -0.1,   -0.0,  999.0,   -0.1,   -0.2,  999.0,   -0.1,   -0.0,   -0.0,   -0.1,   -0.0,   -0.0,    0.0,    0.0,    0.0,    0.0,   -0.0,   -0.1,   -0.0,   -0.0,    0.0,   -0.0,   -0.0,  999.0,    0.0,   -0.0
2007/09/23 03:20,   -0.1,    0.2,  999.0,  999.0,  999.0,  999.0,  999.0,  999.0,   -0.2,  999.0,  999.0,  999.0,  999.0,  999.0,  999.0,  999.0,  999.0,  999.0,  999.0,  999.0,  999.0,  999.0,  999.0,  999.0,  999.0,  999.0,  999.0,  999.0,  999.0,  999.0,  999.0,  999.0,    1.8,    1.2,    0.5,    2.2,    3.7,    4.2,    1.9,    0.6,    1.1,    1.3,    0.2,   -0.1,  999.0,   -0.2,   -0.4,   -0.9,   -0.5,   -0.4,   -0.1,  999.0,    0.2,   -0.2,  999.0,   -0.0,   -0.1,  999.0,   -0.1,   -0.3,  999.0,    0.0,   -0.1,    0.0,   -0.0,   -0.0,   -0.0,   -0.0,    0.0,    0.0,  999.0,    0.0,   -0.0,    0.0,   -0.0,    0.0,   -0.1,   -0.0,    0.0,   -0.0
2007/09/23 03:30,   -0.1,    0.1,    0.4,  999.0,  999.0,  999.0,  999.0,  999.0,  999.0,  999.0,  999.0,  999.0,  999.0,  999.0,  999.0,  999.0,  999.0,  999.0,  999.0,  999.0,  999.0,  999.0,  999.0,  999.0,   -5.9,  999.0,  999.0,  999.0,    0.5,    1.1,  999.0,  999.0,    1.1,    0.4,    0.6,    2.7,    4.0,    3.9,    2.0,    0.5,    0.8,    1.1,    0.3,    0.1,   -0.2,   -0.2,    0.0,    0.0,   -0.5,   -0.4,   -0.2,   -0.1,   -0.2,   -0.4,   -0.1,   -0.2,  999.0,   -0.1,  999.0,   -0.0,    0.0,   -0.0,    0.0,    0.0,   -0.0,    0.0,    0.1,    0.0,    0.0,   -0.1,   -0.1,    0.0,   -0.1,   -0.0,   -0.0,   -0.0,   -0.0,    0.0,    0.0,    0.0
2007/09/23 03:40,   -0.0,  999.0,    0.0,  999.0,  999.0,  999.0,  999.0,  999.0,  999.0,  999.0,  999.0,  999.0,  999.0,  999.0,  999.0,  999.0,  999.0,  999.0,  999.0,  999.0,  999.0,  999.0,  999.0,  999.0,  999.0,  999.0,  999.0,  999.0,    1.0,  999.0,  999.0,    2.4,    2.8,    0.2,    0.6,    2.1,    3.0,    3.5,    1.7,    0.3,    0.2,    0.3,    0.2,   -0.2,   -0.4,   -0.0,    0.0,  999.0,  999.0,   -0.7,   -0.3,   -0.5,   -0.6,   -0.4,   -0.3,  999.0,   -0.0,   -0.2,   -0.3,   -0.1,    0.0,    0.0,   -0.1,   -0.0,  999.0,   -0.0,    0.0,    0.0,    0.1,    0.0,    0.0,   -0.0,   -0.0,   -0.0,   -0.0,    0.1,   -0.0,    0.0,    0.0,    0.0
2007/09/23 03:50,    0.1,    0.1,   -0.1,  999.0,    0.0,  999.0,  999.0,  999.0,  999.0,  999.0,  999.0,  999.0,  999.0,   -5.1,   -6.5,  999.0,  999.0,  999.0,  999.0,  999.0,  999.0,  999.0,  999.0,  999.0,  999.0,   -1.2,    0.1,    0.4,    0.4,  999.0,  999.0,    3.6,    2.8,    0.6,    0.6,    1.3,    2.2,    2.8,    1.8,    0.4,    0.4,    0.4,    0.0,   -0.0,  999.0,   -0.0,  999.0,    0.1,   -0.2,   -0.4,   -0.2,   -0.4,   -0.4,   -0.2,   -0.3,   -0.3,   -0.1,   -0.2,   -0.3,   -0.1,    0.2,   -0.1,    0.0,   -0.0,    0.0,   -0.0,   -0.0,    0.0,   -0.0,   -0.1,   -0.1,    0.0,    0.0,    0.0,    0.0,    0.1,   -0.0,   -0.1,   -0.0,   -0.0
2007/09/23 04:00,    0.2,    0.7,    1.3,    0.0,    0.4,  999.0,  999.0,  999.0,  999.0,  999.0,  999.0,  999.0,   -4.3,  999.0,  999.0,  999.0,  999.0,  999.0,  999.0,  999.0,  999.0,  999.0,   -4.0,   -4.2,  999.0,   -0.1,    0.2,    0.7,  999.0,  999.0,  999.0,    3.9,    3.5,    1.2,    0.2,    1.6,    2.4,    3.0,    0.9,    0.3,    0.2,    0.0,   -0.1,    0.0,   -0.0,    0.1,  999.0,   -0.1,   -0.1,   -0.2,   -0.3,   -0.4,   -0.5,   -0.4,   -0.4,   -0.4,   -0.2,   -0.2,   -0.2,   -0.1,   -0.2,    0.0,    0.0,   -0.1,    0.0,    0.0,   -0.0,    0.1,   -0.1,   -0.0,   -0.0,    0.0,    0.0,   -0.1,   -0.0,    0.0,   -0.0,   -0.0,   -0.1,    0.0
2007/09/23 04:10,   -0.1,   -0.0,  999.0,   -0.2,    0.5,  999.0,  999.0,  999.0,  999.0,  999.0,  999.0,  999.0,    0.4,    0.5,    0.5,   -3.5,  999.0,  999.0,  999.0,  999.0,  999.0,  999.0,   -0.1,  999.0,  999.0,   -0.1,  999.0,  999.0,    1.2,  999.0,  999.0,    3.7,    1.7,    0.7,    0.4,    1.3,    2.5,    3.3,    1.4,    0.4,    0.1,    0.2,   -0.3,    0.0,    0.1,   -0.1,  999.0,   -0.0,   -0.0,  999.0,   -0.5,   -0.4,   -0.2,   -0.2,  999.0,  999.0,  999.0,  999.0,   -0.2,   -0.1,   -0.0,   -0.0,  999.0,  999.0,   -0.1,   -0.0,   -0.0,   -0.0,    0.1,   -0.0,    0.1,  999.0,    0.0,   -0.0,  999.0,  999.0,  999.0,    0.0,    0.0,    0.1
2007/09/23 04:20,   -0.2,   -0.1,    0.2,    0.4,  999.0,   -1.3,  999.0,  999.0,  999.0,  999.0,  999.0,  999.0,  999.0,  999.0,    0.0,  999.0,  999.0,  999.0,   -0.8,   -6.9,   -4.8,  999.0,  999.0,   -2.8,   -0.1,    0.2,    1.0,    1.0,    1.8,  999.0,  999.0,    2.4,    0.1,    0.1,    0.4,    1.0,    2.4,  999.0,    0.6,    0.3,   -0.2,   -0.1,   -0.1,   -0.6,   -0.1,   -0.0,   -0.0,   -0.0,   -0.3,   -0.4,   -0.1,   -0.1,   -0.2,   -0.2,  999.0,   -0.2,   -0.4,   -0.1,    0.0,   -0.0,    0.1,    0.0,    0.0,   -0.0,   -0.0,   -0.1,    0.0,   -0.0,  999.0,   -0.0,   -0.1,   -0.0,    0.0,    0.0,    0.1,   -0.1,   -0.0,   -0.1,   -0.0,   -0.0
2007/09/23 04:30,  999.0,  999.0,  999.0,  999.0,   -0.2,  999.0,  999.0,  999.0,  999.0,  999.0,  999.0,  999.0,  999.0,  999.0,  999.0,  999.0,   -0.3,  999.0,  999.0,  999.0,  999.0,  999.0,   -0.5,   -0.2,   -0.2,    0.3,    0.8,    0.6,  999.0,    3.9,    3.4,    2.0,    0.0,  999.0,    0.2,    0.6,    2.0,    2.6,    0.5,   -0.0,   -0.0,   -0.1,   -0.1,   -0.2,  999.0,    0.0,   -0.1,   -0.2,   -0.7,   -0.5,   -0.3,   -0.1,   -0.1,   -0.1,   -0.2,    0.0,   -0.0,   -0.0,    0.0,    0.0,   -0.0,  999.0,    0.0,   -0.0,    0.0,    0.1,   -0.0,   -0.0,   -0.0,   -0.0,   -0.0,    0.0,   -0.0,   -0.0,   -0.0,   -0.0,    0.0,    0.0,    0.0,    0.0
2007/09/23 04:40,  999.0,  999.0,  999.0,  999.0,  999.0,  999.0,  999.0,  999.0,  999.0,  999.0,  999.0,  999.0,  999.0,   -1.0,    0.0,  999.0,  999.0,  999.0,  999.0,  999.0,  999.0,  999.0,  999.0,   -0.5,   -0.0,    0.2,    0.3,    1.3,  999.0,  999.0,    2.7,    1.0,    0.2,   -0.0,    0.3,    0.5,    2.6,    2.8,    0.5,    0.5,    0.0,  999.0,   -0.0,   -0.2,  999.0,   -0.0,  999.0,   -0.4,   -0.6,   -0.8,   -0.3,   -0.1,    0.0,   -0.0,  999.0,  999.0,    0.0,    0.0,   -0.0,   -0.0,   -0.0,   -0.0,    0.0,   -0.0,    0.0,  999.0,    0.0,   -0.0,    0.0,    0.0,   -0.0,    0.0,   -0.0,    0.0,    0.0,    0.0,    0.1,   -0.0,    0.1,    0.0
2007/09/23 04:50,   -0.4,   -0.3,  999.0,  999.0,  999.0,  999.0,  999.0,  999.0,  999.0,  999.0,  999.0,  999.0,  999.0,  999.0,  999.0,  999.0,  999.0,  999.0,   -2.9,  999.0,  999.0,  999.0,  999.0,  999.0,   -0.2,  999.0,  999.0,    0.6,  999.0,  999.0,    2.7,    1.3,    0.2,    0.4,    0.2,    1.0,    2.0,    2.7,    1.6,    1.0,    0.4,  999.0,  999.0,   -0.1,    0.0,    0.0,   -0.1,    0.0,   -1.5,   -0.7,   -0.9,   -0.4,   -0.2,   -0.0,   -0.1,   -0.0,    0.0,   -0.0,   -0.0,    0.0,   -0.1,   -0.0,   -0.0,    0.0,   -0.0,   -0.0,    0.0,   -0.0,    0.1,    0.1,    0.0,   -0.0,    0.0,    0.1,    0.1,   -0.0,    0.0,    0.1,    0.0,    0.0
2007/09/23 05:00,   -0.4,  999.0,  999.0,  999.0,  999.0,  999.0,  999.0,  999.0,  999.0,  999.0,  999.0,  999.0,  999.0,  999.0,  999.0,  999.0,  999.0,  999.0,  999.0,  999.0,  999.0,  999.0,  999.0,  999.0,    0.1,    0.1,    0.8,    1.3,  999.0,    3.0,    3.0,    0.9,    0.1,   -0.2,   -0.0,    0.4,    2.0,    2.8,    2.3,    0.7,    0.5,    0.1,    0.0,  999.0,    0.1,   -0.2,   -0.2,   -0.0,  999.0,   -0.8,   -0.4,   -0.4,   -0.1,   -0.0,  999.0,   -0.0,    0.0,    0.0,   -0.0,  999.0,   -0.1,   -0.1,   -0.0,    0.0,    0.1,   -0.1,    0.0,   -0.0,   -0.0,   -0.0,   -0.0,    0.1,   -0.0,    0.0,    0.0,    0.0,    0.0,    0.0,   -0.0,    0.1
2007/09/23 05:10,    0.1,   -0.7,   -1.9,  999.0,  999.0,  999.0,  999.0,  999.0,  999.0,  999.0,  999.0,  999.0,  999.0,  999.0,  999.0,  999.0,  999.0,  999.0,  999.0,  999.0,  999.0,  999.0,  999.0,  999.0,   -0.5,   -0.2,    0.7,    1.2,    1.0,    2.6,    2.1,    0.7,    0.2,   -0.2,    0.1,    0.4,    2.1,    2.3,    1.7,    0.8,    0.3,    0.1,   -0.1,   -0.0,   -0.1,   -0.3,   -0.2,  999.0,   -0.0,   -0.6,   -0.7,  999.0,   -0.1,    0.0,   -0.1,   -0.2,   -0.0,   -0.1,    0.0,   -0.0,   -0.1,  999.0,    0.0,    0.0,    0.0,   -0.1,   -0.0,    0.0,    0.0,   -0.0,    0.0,   -0.0,   -0.0,   -0.0,  999.0,    0.1,    0.0,    0.0,  999.0,    0.0
2007/09/23 05:20,  999.0,  999.0,   -1.9,   -1.1,  999.0,  999.0,  999.0,  999.0,  999.0,  999.0,  999.0,  999.0,  999.0,  999.0,  999.0,  999.0,  999.0,  999.0,  999.0,  999.0,  999.0,  999.0,   -0.7,   -0.3,   -0.3,    0.0,    0.6,    1.1,    1.6,  999.0,    2.2,    1.0,    0.4,   -0.2,   -0.0,    0.5,    2.4,    3.1,    2.2,    1.1,    0.8,    0.3,   -0.2,   -0.2,    0.1,   -0.1,   -0.3,    0.1,   -0.1,   -0.8,   -0.6,   -0.4,   -0.1,   -0.0,    0.0,    0.1,    0.0,   -0.0,   -0.0,   -0.0,   -0.0,    0.0,   -0.0,    0.0,    0.0,   -0.0,   -0.0,   -0.0,    0.1,   -0.0,    0.0,    0.0,    0.0,    0.0,   -0.0,   -0.1,    0.0,   -0.0,   -0.0,   -0.0
2007/09/23 05:30,   -0.3,   -1.3,   -1.9,   -1.8,   -0.4,   -0.3,   -0.0,  999.0,    0.9,    0.4,    0.0,   -0.2,   -0.1,    0.3,    0.3,    0.3,    0.1,   -0.7,   -1.3,   -2.4,   -2.6,   -1.8,   -0.9,   -0.2,   -0.2,   -0.0,    0.5,    1.4,    1.7,    1.2,    1.5,    1.0,    0.3,   -0.0,   -0.1,    0.5,    2.5,    3.6,  999.0,    1.9,    1.2,    0.6,   -0.2,   -0.2,   -0.0,    0.1,    0.0,   -0.0,   -0.1,  999.0,   -0.3,   -0.3,   -0.3,   -0.0,    0.1,   -0.0,   -0.1,   -0.0,    0.0,   -0.0,   -0.0,    0.1,    0.1,   -0.1,    0.0,   -0.0,    0.0,    0.0,   -0.0,   -0.0,    0.0,   -0.0,    0.0,    0.1,   -0.0,   -0.0,  999.0,  999.0,  999.0,  999.0
2007/09/23 05:40,   -0.5,   -1.6,  999.0,  999.0,  999.0,   -0.5,    0.2,    0.0,    0.3,    0.1,   -0.4,   -0.4,   -0.3,   -0.1,    0.6,    0.5,    0.1,   -1.0,   -2.1,   -2.3,   -2.4,   -1.4,   -0.3,   -0.3,    0.0,    0.2,    1.2,    1.7,    2.0,    3.1,    1.5,    0.8,    0.1,    0.0,   -0.1,    0.7,    2.3,    3.7,    2.5,    2.6,    1.5,    0.7,   -0.2,   -0.3,   -0.3,   -0.2,   -0.0,   -0.1,   -0.0,   -0.4,   -0.2,   -0.1,   -0.7,   -0.5,  999.0,   -0.0,    0.0,   -0.0,   -0.0,    0.0,   -0.1,    0.0,   -0.0,    0.0,    0.0,    0.0,   -0.0,   -0.0,    0.0,    0.0,    0.0,    0.0,   -0.0,   -0.1,   -0.0,    0.0,  999.0,  999.0,  999.0,  999.0
2007/09/23 05:50,   -0.5,  999.0,  999.0,  999.0,  999.0,  999.0,   -0.1,    0.7,    0.5,    0.5,   -0.2,   -0.4,   -0.4,    0.1,    1.3,    1.4,    0.3,   -0.2,   -0.8,   -1.8,   -1.5,   -0.9,   -0.3,   -0.1,    0.2,    0.4,    1.2,    1.9,    2.4,    2.9,    1.7,    1.1,    0.2,  999.0,    0.0,    0.6,    1.8,    3.4,    3.2,    3.2,    2.7,    1.2,   -0.1,   -0.8,   -0.8,   -1.1,   -0.3,   -0.4,   -0.2,   -0.7,   -0.7,   -0.1,   -0.3,   -0.3,   -0.1,   -0.0,    0.0,   -0.0,    0.0,    0.1,    0.0,   -0.0,   -0.1,   -0.1,    0.0,   -0.0,    0.0,    0.0,    0.0,   -0.0,   -0.0,   -0.0,    0.1,   -0.0,   -0.1,  999.0,   -0.1,  999.0,  999.0,   -0.2
2007/09/23 06:00,  999.0,  999.0,  999.0,  999.0,  999.0,  999.0,   -1.1,   -0.8,  999.0,  999.0,  999.0,   -0.5,  999.0,    0.4,    0.9,    1.0,    0.1,   -0.1,   -0.2,   -1.1,   -1.1,   -0.7,   -0.3,   -0.1,   -0.2,    0.3,    1.3,    2.2,    2.6,    2.5,    1.3,    0.8,    0.1,   -0.1,    0.0,    0.6,    1.6,    3.1,    3.4,    2.9,    2.1,    0.4,   -0.2,   -0.4,   -1.1,   -0.8,    0.0,   -0.2,   -0.2,   -0.5,   -0.6,  999.0,   -0.3,   -0.4,   -0.1,    0.0,  999.0,    0.1,   -0.0,   -0.0,  999.0,    0.0,    0.0,    0.0,  999.0,   -0.0,    0.0,   -0.0,   -0.0,    0.0,    0.0,   -0.0,    0.0,   -0.0,    0.0,   -0.0,  999.0,  999.0,  999.0,  999.0
2007/09/23 06:10,   -0.2,   -0.2,   -0.9,   -1.7,  999.0,  999.0,  999.0,   -0.8,    0.6,   -0.4,   -0.5,   -0.1,    0.2,    1.1,    1.5,    1.9,    0.4,    0.1,   -0.1,   -0.4,   -0.7,   -0.4,   -0.1,   -0.1,    0.1,    0.4,    1.1,    1.9,    2.8,    2.1,    1.7,    1.2,    0.1,    0.1,    0.1,    0.5,    1.4,    2.6,    3.2,    2.6,    2.6,    0.2,   -0.2,   -0.2,   -1.3,   -1.1,   -0.3,   -0.2,   -0.3,   -0.6,   -0.6,   -0.1,   -0.4,   -0.9,   -0.4,    0.0,   -0.0,   -0.0,   -0.0,   -0.1,   -0.1,   -0.0,   -0.0,   -0.0,    0.0,    0.0,   -0.0,   -0.0,    0.0,   -0.0,    0.0,    0.1,    0.1,    0.0,    0.2,  999.0,  999.0,  999.0,  999.0,  999.0
2007/09/23 06:20,   -0.7,   -0.8,   -3.2,  999.0,  999.0,  999.0,  999.0,   -0.8,   -0.5,   -0.3,   -0.9,   -1.0,    0.3,    0.3,    1.1,    1.3,    1.0,   -0.1,   -0.2,   -0.6,   -0.7,   -0.1,   -0.2,   -0.1,   -0.1,    0.4,    1.0,    1.7,    3.0,    3.0,    1.7,    1.7,   -0.1,    0.1,   -0.1,    0.3,    1.2,    2.1,    2.3,    1.9,    2.0,  999.0,  999.0,   -0.4,   -1.4,   -0.6,   -0.6,   -0.3,   -0.5,   -0.6,   -0.0,   -0.2,  999.0,  999.0,    0.1,   -0.0,   -0.1,   -0.0,   -0.0,   -0.0,    0.0,    0.1,   -0.0,   -0.0,    0.0,  999.0,   -0.0,   -0.2,    0.1,    0.0,   -0.0,   -0.0,    0.1,    0.0,    0.1,    0.0,    0.1,   -0.2,   -0.0,   -0.3
2007/09/23 06:30,   -0.2,   -0.8,  999.0,  999.0,  999.0,  999.0,   -0.4,    0.1,   -1.3,   -0.1,    0.0,   -0.6,    0.0,  999.0,  999.0,    1.1,    1.3,    0.3,   -0.1,   -0.5,   -0.6,   -0.4,    0.1,  999.0,    0.1,    0.4,    0.8,    1.1,  999.0,    3.2,    1.9,    1.6,    0.4,   -0.1,    0.1,    0.1,    0.9,    2.0,    2.9,    2.1,    2.1,   -0.4,  999.0,   -0.6,   -0.8,   -0.8,   -0.3,   -0.0,   -0.6,   -0.8,   -0.0,  999.0,   -0.1,    0.1,   -0.1,  999.0,    0.0,   -0.0,    0.0,   -0.1,   -0.0,    0.1,    0.0,    0.0,   -0.1,   -0.0,    0.0,    0.0,   -0.0,    0.0,    0.0,    0.0,    0.0,   -0.0,    0.1,   -0.1,   -0.3,   -0.6,   -0.9,   -1.0
2007/09/23 06:40,   -0.0,   -1.5,   -2.9,   -3.0,   -2.6,  999.0,   -2.2,  999.0,  999.0,  999.0,   -0.2,   -0.7,   -0.0,   -0.4,    0.6,    0.6,    0.8,   -0.1,   -0.3,   -0.5,   -0.4,   -0.8,   -0.2,   -0.1,    0.0,    0.3,    1.0,    0.9,    1.8,    2.5,    1.4,    1.2,    0.2,    0.1,   -0.0,   -0.0,    0.9,    1.5,    2.7,    2.7,    2.1,  999.0,    0.1,   -0.0,   -0.2,   -0.2,   -0.2,  999.0,   -0.2,   -0.9,   -0.4,    0.0,   -0.1,   -0.2,    0.0,   -0.1,   -0.0,    0.0,   -0.0,    0.0,   -0.0,    0.1,   -0.1,    0.0,   -0.0,    0.0,    0.0,    0.0,    0.1,   -0.0,   -0.0,    0.0,   -0.0,   -0.0,   -0.1,  999.0,   -2.5,   -2.9,  999.0,  999.0
2007/09/23 06:50,   -0.2,   -1.3,   -2.0,   -3.2,   -2.7,  999.0,  999.0,  999.0,   -0.9,   -0.5,    0.1,   -0.2,   -0.0,   -0.2,    1.1,    1.0,    0.5,   -0.2,   -0.5,   -0.6,   -0.6,   -0.8,   -0.4,   -0.3,    0.1,    0.6,    1.3,    1.4,    1.7,    2.0,    1.7,    1.4,    0.4,    0.1,   -0.1,    0.2,    1.1,    1.7,    1.9,    2.1,    1.6,    0.0,   -0.2,  999.0,   -0.4,   -0.2,   -0.2,   -0.4,   -0.7,   -1.0,  999.0,   -0.0,    0.0,  999.0,    0.0,   -0.0,   -0.0,    0.0,   -0.1,   -0.0,  999.0,  999.0,  999.0,   -0.1,   -0.0,    0.0,   -0.0,    0.1,    0.0,    0.0,   -0.0,    0.0,    0.0,  999.0,   -0.8,   -0.9,   -2.8,  999.0,  999.0,  999.0
2007/09/23 07:00,   -0.2,   -0.3,   -1.0,   -1.4,   -2.1,   -2.3,   -2.1,  999.0,   -1.1,   -0.8,   -0.4,   -0.8,    0.5,    0.1,    1.1,    0.6,    0.4,   -0.3,   -0.6,   -0.9,   -0.9,   -1.0,   -0.6,   -0.3,    0.0,    0.4,    1.3,    1.7,    1.3,    2.1,    2.1,    1.7,    0.4,    0.0,    0.2,    0.7,    1.5,    2.5,    3.0,    3.2,  999.0,  999.0,  999.0,  999.0,   -0.1,   -0.1,   -0.3,   -0.2,   -0.6,   -1.5,   -1.5,    0.0,   -0.0,   -0.1,    0.0,    0.0,    0.0,   -0.0,  999.0,   -0.0,   -0.1,    0.0,   -0.0,  999.0,   -0.0,    0.0,    0.1,  999.0,    0.0,   -0.0,    0.1,   -0.0,    0.0,   -0.1,   -0.3,   -0.9,   -1.7,  999.0,  999.0,  999.0
2007/09/23 07:10,   -0.2,   -0.1,   -0.4,   -1.1,  999.0,   -1.1,   -1.2,   -1.2,   -1.2,   -0.5,   -0.2,   -1.0,    0.4,  999.0,    0.7,    0.8,    0.4,   -0.2,   -0.1,   -0.7,   -0.9,   -0.5,   -0.3,   -0.1,    0.2,    0.7,    1.2,    1.4,    1.3,    1.5,    1.5,    1.1,    0.5,    0.2,    0.2,    0.7,    1.0,    2.1,    2.9,    3.0,    2.2,  999.0,    0.2,    0.1,    0.0,   -0.1,   -0.2,   -0.3,   -0.3,  999.0,   -0.3,   -0.0,    0.0,    0.0,   -0.0,   -0.1,   -0.0,   -0.0,    0.0,   -0.0,    0.0,   -0.0,    0.0,    0.0,   -0.1,   -0.0,  999.0,    0.0,   -0.0,    0.0,    0.0,   -0.0,   -0.0,    0.0,   -0.2,   -0.5,   -1.0,   -1.5,   -1.2,  999.0
2007/09/23 07:20,   -0.1,   -0.2,   -0.5,   -0.7,   -1.0,   -0.7,   -0.8,   -1.6,   -2.4,   -0.9,   -0.2,   -1.0,   -0.4,    0.4,    0.3,    0.6,    0.7,    0.2,   -0.2,   -0.4,   -0.3,   -0.4,   -0.2,   -0.1,  999.0,    0.3,    0.7,    1.7,    1.6,    2.3,    1.4,    1.1,    0.7,    0.2,    0.0,    0.2,    0.5,  999.0,    2.8,    3.0,  999.0,    0.2,    0.1,   -0.0,    0.1,   -0.2,   -0.2,   -0.4,  999.0,  999.0,   -0.2,  999.0,   -0.3,  999.0,   -0.0,  999.0,  999.0,   -0.1,    0.1,    0.0,    0.0,    0.0,    0.0,    0.0,   -0.0,    0.0,  999.0,    0.1,   -0.1,    0.0,    0.1,   -0.0,   -0.2,   -0.2,   -0.3,   -0.3,   -0.4,   -1.4,   -1.5,   -2.1
2007/09/23 07:30,    0.0,   -0.2,   -0.4,   -0.7,   -0.7,   -0.5,   -0.9,  999.0,   -1.6,   -0.5,    0.0,   -1.6,   -1.4,   -0.5,    0.1,    0.2,    0.3,   -0.2,   -0.2,   -0.4,   -0.6,   -0.4,   -0.2,   -0.2,  999.0,    0.3,    1.2,    1.9,    1.4,    1.6,    1.5,    1.2,    0.4,   -0.0,    0.1,    0.2,    0.5,    2.0,    2.7,    3.3,  999.0,    0.6,    0.2,  999.0,   -0.1,   -0.2,   -0.0,   -0.2,   -0.3,   -0.8,   -0.1,  999.0,  999.0,  999.0,   -0.0,    0.1,    0.0,   -0.0,   -0.0,   -0.0,   -0.0,  999.0,   -0.0,  999.0,    0.0,  999.0,   -0.0,   -0.0,   -0.0,  999.0,  999.0,   -0.9,  999.0,   -1.9,   -2.3,   -2.8,   -2.8,   -3.0,   -3.3,   -3.8
2007/09/23 07:40,   -0.2,   -0.2,   -0.5,   -0.6,   -0.3,   -0.2,   -1.0,   -1.2,   -1.3,   -0.7,    0.2,   -0.5,   -2.4,   -0.6,   -0.2,    0.2,    0.2,   -0.0,   -0.3,   -0.5,   -0.7,   -0.5,   -0.3,   -0.3,   -0.2,    0.1,    0.5,    1.2,    1.1,    0.7,    1.5,    1.0,    0.6,    0.3,    0.3,    1.0,    1.6,  999.0,    3.4,    4.0,    0.1,    0.1,    0.2,   -0.1,   -0.4,   -0.2,   -0.2,   -0.3,   -0.8,   -0.3,    0.0,    0.0,   -0.0,   -0.0,    0.0,   -0.1,   -0.0,   -0.0,    0.1,    0.0,   -0.4,   -0.2,   -0.1,   -0.1,  999.0,  999.0,   -1.1,  999.0,  999.0,  999.0,    0.1,    0.1,   -0.3,   -1.0,   -2.2,   -3.6,   -4.3,   -4.7,   -5.0,   -5.3
2007/09/23 07:50,    0.0,   -0.2,   -0.3,   -0.1,   -0.0,   -0.0,   -0.8,   -1.0,   -0.6,   -0.2,    0.4,   -0.7,   -1.7,  999.0,   -0.0,   -0.2,   -0.0,   -0.4,   -0.5,   -1.0,   -1.1,   -1.0,   -0.7,   -0.4,   -0.1,    0.4,    1.4,    1.5,    0.9,    0.8,    0.9,    0.9,    0.2,    0.5,    0.0,    1.1,    1.3,    2.0,    2.8,    2.8,  999.0,   -0.0,    0.2,   -0.1,  999.0,  999.0,  999.0,   -0.4,   -0.4,   -0.5,   -0.3,   -0.1,   -0.2,   -0.2,   -0.1,    0.0,  999.0,    0.1,   -0.0,   -0.1,   -0.2,   -0.4,   -0.3,    0.5,   -0.5,    0.6,    0.1,  999.0,  999.0,  999.0,  999.0,  999.0,   -1.9,   -2.7,   -4.4,   -5.1,   -6.4,   -6.3,   -6.5,   -6.6
2007/09/23 08:00,   -0.1,   -0.3,   -0.4,   -0.5,   -0.2,   -0.5,   -1.0,   -1.3,   -0.6,   -0.3,    0.2,    0.1,  999.0,  999.0,  999.0,   -0.5,   -0.1,   -0.1,   -0.9,   -0.5,   -0.7,   -0.4,   -0.4,   -0.2,    0.0,    0.7,    1.6,    1.3,    0.7,    1.1,    0.6,    0.4,   -0.1,   -0.1,    0.5,    0.3,    1.1,    1.4,    1.5,    1.5,    0.7,    0.2,   -0.2,   -0.3,   -0.9,  999.0,   -1.3,   -0.6,   -0.7,   -1.3,  999.0,   -0.2,   -0.2,   -0.4,   -0.6,   -0.5,   -0.0,   -0.0,   -0.2,   -0.1,    0.3,    0.2,    0.3,    0.6,    0.3,    0.6,    1.0,  999.0,    1.6,    1.7,    0.3,    0.6,   -1.1,   -3.1,   -5.3,   -5.4,   -6.8,   -6.5,   -6.7,   -5.8
2007/09/23 08:10,    0.0,   -0.2,   -0.2,   -0.4,   -0.8,   -0.8,   -0.4,   -0.3,    0.0,   -0.3,   -0.6,   -0.1,   -0.9,   -2.1,   -1.2,   -0.9,   -0.5,   -0.1,   -0.8,   -1.5,   -1.0,  999.0,   -1.2,   -1.0,   -0.6,   -0.3,    0.1,    0.3,    0.4,    0.7,    0.5,    0.3,    0.0,    0.4,    0.4,    1.3,    1.3,    2.0,    2.6,    2.6,    0.5,    0.3,    0.1,   -0.4,   -1.3,  999.0,  999.0,   -1.0,   -0.5,   -0.7,  999.0,   -0.9,   -0.3,   -0.4,   -0.5,   -0.1,    0.0,   -0.0,  999.0,    0.2,    0.1,    0.3,    0.3,    0.6,    0.7,    1.1,    1.2,    1.0,    1.0,    1.3,  999.0,  999.0,    0.2,  999.0,  999.0,  999.0,  999.0,    0.1,   -0.1,  999.0
2007/09/23 08:20,   -0.2,   -0.1,   -0.4,   -1.2,   -0.7,   -0.8,    0.1,   -0.1,   -0.3,   -0.4,   -0.1,    0.0,   -0.5,   -1.2,   -0.9,   -0.8,   -0.3,   -0.6,   -1.1,   -1.5,   -1.3,   -1.1,   -1.5,   -1.4,   -0.9,   -0.1,    0.3,    0.0,    0.8,    1.3,    0.8,    0.2,    0.2,    0.8,    1.2,    1.6,    1.6,    1.7,    1.7,    1.8,    0.7,    0.3,   -0.1,   -0.7,   -1.4,   -1.3,   -2.2,   -1.0,   -0.4,   -0.5,   -0.8,   -0.5,   -0.3,   -0.6,   -0.7,    0.3,   -0.0,    0.2,   -0.0,    0.0,    0.8,    0.4,    0.5,    1.1,    1.0,    1.1,  999.0,  999.0,    0.4,    0.5,    0.5,   -1.1,   -3.8,   -4.8,   -3.8,   -4.0,   -3.6,   -3.7,   -4.1,   -3.8
2007/09/23 08:30,   -0.2,    0.0,   -0.3,   -0.4,   -0.4,   -0.2,    0.1,   -0.0,   -0.1,    0.1,   -0.2,   -0.7,   -0.3,   -0.4,   -0.7,   -0.9,   -0.6,   -0.7,   -1.2,   -1.8,   -1.9,   -2.0,   -2.0,   -1.7,   -1.5,   -0.8,    0.4,    0.4,    0.1,    1.0,    1.9,    1.0,    0.6,    1.4,    2.1,    2.2,    2.1,    1.8,    2.6,    1.9,    1.9,    0.6,    0.0,   -0.7,   -1.6,  999.0,  999.0,   -0.4,   -1.4,  999.0,   -2.3,   -2.3,   -1.5,   -0.9,   -1.0,   -0.4,    0.4,    0.9,    0.8,    1.3,  999.0,    0.3,    0.3,    0.4,  999.0,  999.0,    0.7,   -0.6,  999.0,  999.0,    1.1,   -1.1,   -3.2,   -3.9,   -4.6,   -5.0,   -5.3,   -5.7,   -5.5,   -5.3
2007/09/23 08:40,   -0.2,   -0.1,   -0.3,    0.4,   -0.3,   -0.1,   -0.2,   -0.5,   -0.3,   -0.1,   -0.3,   -0.6,   -1.1,   -0.7,   -1.0,   -0.5,   -1.3,   -2.0,   -2.0,  999.0,   -2.9,   -2.4,   -2.2,   -2.0,   -1.4,   -0.5,    0.1,   -0.6,    0.0,    1.3,    0.9,    0.2,    0.6,    1.2,    2.3,    2.2,    2.1,    1.7,    2.0,    1.8,    1.8,    1.2,    0.7,   -0.0,   -1.0,   -1.1,   -2.2,   -2.3,   -1.3,   -1.1,  999.0,   -1.0,   -0.8,   -0.4,   -0.0,    0.4,    0.7,  999.0,    1.9,    2.0,    1.5,    1.5,    0.6,    0.3,   -0.0,    0.0,    0.1,  999.0,  999.0,  999.0,  999.0,  999.0,   -3.1,   -4.9,   -5.7,   -6.6,   -6.4,   -6.1,   -6.2,   -6.2
2007/09/23 08:50,   -0.1,   -0.4,   -0.0,   -0.0,   -0.1,   -0.0,   -0.4,   -0.7,   -0.3,   -0.4,   -0.3,   -0.4,   -0.6,   -0.9,   -0.8,   -0.5,   -0.9,   -0.6,   -2.2,   -2.0,   -2.3,   -2.2,   -1.9,   -1.6,   -1.1,   -0.3,   -0.1,    0.2,    0.8,    1.2,    1.4,    0.5,    0.2,    1.1,    2.1,    1.6,    1.6,    1.3,    1.3,    2.1,    1.3,    0.3,    0.1,   -0.9,   -1.7,   -2.9,   -3.1,   -1.9,   -1.3,   -0.9,   -1.2,   -0.9,   -0.5,   -0.2,   -0.2,    0.0,    0.7,    1.2,    0.7,    0.6,    0.2,  999.0,    0.6,  999.0,    0.1,    0.2,   -0.1,   -0.3,   -0.6,   -1.9,  999.0,   -3.7,   -4.8,   -6.0,   -6.1,   -7.0,   -6.7,   -6.5,   -6.1,   -6.4
2007/09/23 09:00,   -0.2,   -0.1,   -0.2,   -0.2,    0.0,   -0.3,   -0.6,   -0.6,   -0.4,   -0.0,   -0.2,   -0.7,   -1.2,   -1.2,   -0.8,   -0.8,   -0.7,   -0.7,   -1.0,   -1.8,   -1.5,   -1.8,   -1.5,   -1.2,   -1.2,   -0.3,    0.2,   -0.1,    0.5,    1.6,    1.3,    0.8,    0.3,    1.2,    2.5,    1.7,    2.5,    2.3,    1.4,    2.1,    1.4,  999.0,    0.3,   -0.2,   -0.8,   -2.7,   -3.1,   -2.4,   -2.0,   -1.3,   -1.8,   -2.2,   -1.0,   -1.7,   -0.5,    0.4,    0.7,    0.9,    1.2,    1.2,    1.6,  999.0,  999.0,  999.0,  999.0,  999.0,  999.0,    2.2,    0.5,   -0.3,   -1.5,   -2.7,   -3.3,   -3.8,   -5.0,   -4.8,   -5.2,   -5.2,   -5.3,   -5.9
2007/09/23 09:10,   -0.1,    0.1,    0.0,   -0.1,   -0.2,    0.0,   -0.2,   -0.3,   -0.2,   -0.1,   -0.8,   -1.2,   -1.3,   -0.9,   -0.7,   -0.6,   -1.1,   -0.9,   -1.2,   -2.0,   -2.3,   -1.8,   -1.6,   -1.6,   -1.8,  999.0,    0.3,   -0.3,    0.8,    1.2,    0.9,    0.3,    0.6,    1.1,    2.0,    2.3,    1.9,    2.4,  999.0,    1.7,    1.2,    1.2,    1.0,  999.0,   -0.3,  999.0,  999.0,   -1.6,   -1.6,   -1.8,   -1.2,   -1.3,   -1.5,   -0.1,   -0.6,   -0.7,    0.3,    0.1,    0.4,    0.3,    1.0,    0.4,  999.0,    0.2,    0.5,  999.0,  999.0,    0.3,  999.0,  999.0,  999.0,   -1.2,   -2.3,   -3.6,   -3.9,  999.0,   -4.5,   -4.2,   -4.0,   -4.0
2007/09/23 09:20,   -0.0,   -0.0,   -0.2,   -0.6,   -0.7,   -0.3,   -0.6,   -0.4,    0.3,    0.0,   -0.4,   -0.8,   -1.1,   -0.9,   -0.6,   -0.5,   -0.7,   -0.6,   -1.7,   -2.0,   -1.6,   -1.7,   -1.5,   -1.0,   -0.7,   -0.1,    0.1,    0.1,    0.9,    1.1,    0.5,    0.4,    1.2,    1.5,    0.7,    1.5,    1.0,    1.5,    1.1,    2.0,    1.9,    1.2,    0.5,    0.1,   -0.1,   -0.6,   -1.5,   -1.9,   -1.3,   -1.7,   -0.9,   -1.3,   -2.2,   -0.8,  999.0,   -0.7,   -0.0,   -0.3,    0.2,    0.1,    0.4,    0.7,    0.3,    0.3,  999.0,    0.2,    0.1,   -0.2,    0.0,    0.2,  999.0,   -1.3,  999.0,  999.0,   -4.3,   -4.4,   -4.3,   -4.5,  999.0,   -4.6
2007/09/23 09:30,    0.2,    0.2,    0.3,   -0.0,   -0.2,    0.0,   -0.3,   -0.0,   -0.0,   -0.3,   -0.3,   -0.1,   -0.7,   -0.5,   -0.2,   -0.1,    0.0,   -0.2,   -1.1,   -2.6,   -2.6,   -2.2,   -1.9,   -1.4,   -1.0,   -0.5,   -0.5,    0.1,    0.7,    0.9,    0.3,   -0.2,    0.3,    0.9,    2.6,    1.1,    1.6,    1.5,    0.5,    1.3,    1.7,    1.9,    1.3,    0.9,    0.1,   -0.3,   -1.5,   -1.2,   -1.5,   -1.4,   -0.7,   -1.1,   -1.1,   -0.6,   -0.2,   -0.4,   -0.3,   -0.1,    0.1,    0.3,    0.4,    0.4,   -0.0,    0.5,    0.2,    0.2,   -0.0,    0.1,  999.0,  999.0,   -0.3,   -0.7,   -2.2,   -3.2,   -4.1,   -4.2,   -3.9,   -4.0,   -4.1,   -3.8
2007/09/23 09:40,   -0.3,   -0.1,   -0.3,   -0.3,   -0.2,   -0.6,   -0.3,    0.0,    0.4,   -0.4,   -0.3,   -0.4,   -0.2,   -0.4,   -0.2,   -0.1,   -0.1,    0.1,   -0.6,   -1.8,   -2.1,   -2.5,   -2.1,   -1.5,   -1.3,   -0.9,   -0.3,    0.2,    0.9,    0.7,    0.2,   -0.1,    0.1,    0.7,    2.9,  999.0,    1.9,    1.4,    0.2,    0.6,    1.4,    1.7,    1.2,    0.7,    0.4,   -0.2,   -0.5,   -1.1,   -1.4,   -1.1,   -1.2,   -1.3,   -1.5,   -0.0,   -0.0,  999.0,   -0.5,   -0.1,   -0.0,    0.1,    0.4,    0.4,    0.5,    0.4,    0.1,    0.1,    0.3,  999.0,   -0.0,   -0.0,  999.0,  999.0,   -3.1,  999.0,   -4.3,   -4.8,  999.0,   -5.0,   -4.3,  999.0
2007/09/23 09:50,   -0.1,   -0.2,   -0.3,   -0.2,   -0.0,   -0.2,    0.1,    0.1,    0.3,    0.0,   -0.1,   -0.0,   -0.3,   -0.5,   -0.6,   -0.3,   -0.1,    0.2,   -0.2,   -1.0,  999.0,   -2.0,   -1.7,   -0.3,   -0.5,   -0.7,   -0.3,    0.1,    1.3,    1.3,    0.6,    0.2,    0.7,    1.2,  999.0,    3.9,    2.6,    1.0,    0.5,    0.7,    1.3,    1.7,    1.4,    1.0,    0.6,   -0.2,   -0.4,   -0.9,   -1.3,   -0.7,   -0.5,   -0.3,   -0.1,   -0.1,   -0.2,   -0.1,   -0.0,   -0.3,    0.3,    0.7,    1.4,    0.7,  999.0,    0.4,   -0.0,  999.0,   -0.0,   -0.0,   -0.0,   -0.1,    0.1,  999.0,    0.5,  999.0,  999.0,    0.0,   -0.1,  999.0,  999.0,    0.1
2007/09/23 10:00,   -0.1,   -0.2,    0.0,    0.2,    0.4,    0.1,    0.8,    0.7,    0.3,    0.4,    0.3,   -0.2,   -0.5,   -0.8,   -0.7,   -0.5,   -0.1,    0.0,   -0.2,   -1.4,   -2.0,  999.0,   -0.9,   -0.3,   -0.5,   -0.7,   -0.3,    0.2,    0.7,    1.1,    0.8,    0.3,    0.3,    1.1,    3.8,    4.2,    3.6,    1.6,    0.7,    0.5,    1.1,    1.4,    1.3,  999.0,    0.3,    0.2,   -0.5,   -1.2,   -1.6,   -0.7,   -0.3,   -0.4,   -0.6,  999.0,    0.0,    0.0,    0.0,  999.0,    0.0,    0.6,    0.9,  999.0,   -0.0,   -0.0,  999.0,    0.1,   -0.0,  999.0,   -0.1,  999.0,   -0.0,    0.2,   -0.2,    0.0,  999.0,  999.0,  999.0,  999.0,  999.0,  999.0
2007/09/23 10:10,   -0.0,   -0.3,    0.1,    0.0,    0.0,    0.0,   -0.0,    0.7,    0.6,    0.7,    0.8,    0.3,   -0.1,   -0.9,   -0.8,   -0.3,  999.0,   -0.3,   -0.8,   -1.2,   -0.9,   -1.1,   -0.9,   -0.3,   -0.3,   -1.0,   -0.6,   -0.3,    0.1,    0.6,    0.4,    0.1,    0.2,    1.1,    3.6,    3.1,    2.1,    1.3,    0.2,    0.3,    1.8,    2.8,    2.4,    1.8,    0.3,    0.0,   -0.2,   -0.3,   -0.3,   -0.2,   -0.3,   -0.5,   -1.0,    0.0,    0.0,  999.0,   -0.1,   -0.1,   -0.0,    0.0,   -0.2,   -0.0,   -0.0,    0.0,   -0.0,   -0.0,   -0.0,   -0.0,    0.1,    0.3,    0.3,    0.4,  999.0,  999.0,  999.0,  999.0,    0.0,    0.1,  999.0,  999.0
2007/09/23 10:20,    0.1,   -0.1,   -0.0,    0.0,    0.5,   -0.0,    0.1,    0.3,    0.4,    1.0,    0.9,    0.7,    0.2,   -0.2,   -0.4,   -0.2,   -0.6,   -0.4,   -0.4,   -0.6,   -1.2,   -1.5,   -0.8,   -0.6,   -0.8,   -1.1,   -0.6,   -0.0,    0.5,    0.8,    0.5,    0.2,    0.3,    1.1,    3.4,    2.0,    1.5,    0.5,   -0.3,   -0.1,    1.0,    2.8,    2.0,    1.2,    0.9,    0.0,   -0.0,   -0.2,   -0.1,   -0.2,   -0.1,   -0.4,  999.0,   -0.2,    0.1,  999.0,   -0.3,    0.0,   -0.0,  999.0,    0.0,   -0.0,    0.1,  999.0,  999.0,   -0.1,   -0.0,  999.0,  999.0,    0.6,  999.0,   -0.2,   -0.1,  999.0,  999.0,  999.0,  999.0,  999.0,  999.0,  999.0
2007/09/23 10:30,   -0.1,   -0.1,   -0.1,   -0.3,   -0.2,   -0.3,    0.0,    0.0,    0.1,   -0.4,    0.2,    0.1,   -0.2,   -0.7,   -0.9,   -0.3,    0.5,    0.1,    0.1,   -0.9,   -1.5,   -1.6,   -1.1,   -0.6,   -1.3,   -1.6,   -1.2,   -0.4,    0.3,    1.1,    0.5,    0.0,    0.1,    1.3,    3.3,    3.1,    1.7,    1.1,    0.2,    1.1,    1.9,    2.9,    2.2,    2.4,    1.2,    0.1,   -0.0,    0.1,    0.5,   -0.0,   -0.1,   -0.1,  999.0,   -0.0,    0.0,   -0.2,  999.0,   -0.2,   -0.0,  999.0,   -0.1,   -0.2,   -0.0,    0.0,    0.1,   -0.0,   -0.0,  999.0,    0.0,    0.0,   -0.0,    0.0,   -0.0,    0.0,  999.0,  999.0,  999.0,  999.0,  999.0,  999.0
2007/09/23 10:40,    0.0,    0.1,    0.0,   -0.1,   -0.1,   -0.3,   -0.0,    0.6,    0.3,    0.3,    0.1,   -0.4,   -0.5,   -0.4,    0.2,    0.0,   -0.0,  999.0,   -1.6,   -1.9,   -2.6,   -2.6,   -2.0,   -1.5,   -0.9,   -1.6,   -1.2,   -0.2,    0.7,    0.8,    0.5,    0.2,    0.4,    1.4,  999.0,    2.6,    1.4,    0.6,   -0.3,    1.0,    2.1,  999.0,    1.5,    1.0,    0.5,    0.0,    0.3,    0.4,    0.3,   -0.1,    0.2,    0.2,    0.1,    0.0,   -0.1,   -0.1,    0.1,    0.1,    0.0,    0.0,    0.0,    0.0,   -0.1,    0.0,    0.0,    0.0,    0.0,    0.0,    0.0,    0.0,    0.2,   -0.0,   -0.5,   -0.8,   -0.4,  999.0,  999.0,   -0.7,   -0.0,  999.0
2007/09/23 10:50,    0.0,    0.0,    0.1,    0.1,    0.3,    0.3,    0.5,    0.5,    0.6,    0.5,    0.4,    0.4,   -0.4,   -0.5,   -0.2,   -0.4,   -0.1,   -0.1,  999.0,   -1.6,   -2.5,   -2.1,   -1.5,   -1.2,   -1.1,   -1.1,   -0.0,    1.0,    2.0,    1.7,    1.0,    0.6,    0.7,    1.1,    2.1,    1.7,    0.5,   -0.2,   -0.4,    0.4,    1.3,    0.5,    1.1,    0.7,    0.1,    0.4,    0.4,    0.7,    0.1,   -0.1,   -0.1,    0.1,   -0.0,   -0.4,  999.0,   -0.0,   -0.4,   -0.2,   -0.3,   -0.2,    0.5,  999.0,  999.0,  999.0,    0.0,  999.0,  999.0,  999.0,  999.0,   -0.1,   -0.1,   -0.2,   -0.7,   -0.7,   -0.5,   -0.6,  999.0,   -0.7,  999.0,  999.0
2007/09/23 11:00,    0.1,   -0.1,    0.0,   -0.0,    0.1,    0.1,    0.0,   -0.0,    0.0,    0.2,    0.1,   -0.3,   -0.2,   -0.4,    0.5,    0.2,    0.2,   -0.2,   -0.0,   -1.1,   -1.7,   -2.0,   -1.3,   -0.8,   -0.7,   -1.0,   -0.6,   -0.0,    0.8,    1.2,    1.4,    0.3,    0.3,    1.7,    3.4,    3.9,    2.4,    1.5,    0.5,    1.0,  999.0,    0.9,    1.4,    1.0,    0.3,    0.4,    0.4,    0.5,    0.5,    0.2,    0.3,    0.2,   -0.0,   -0.1,  999.0,    0.2,    0.1,  999.0,    0.0,    0.0,    0.0,    0.0,   -0.0,   -0.0,   -0.0,    0.0,   -0.0,    0.0,   -0.1,  999.0,  999.0,   -0.3,   -1.6,   -1.8,   -1.8,  999.0,  999.0,  999.0,   -2.7,   -3.1
2007/09/23 11:10,   -0.0,   -0.1,   -0.2,    0.0,    0.2,    0.0,    0.1,    0.2,   -0.1,   -0.1,   -0.0,   -0.3,   -0.6,   -0.7,   -1.0,   -1.1,   -1.0,   -1.1,   -0.6,   -0.7,   -0.9,   -0.7,   -0.4,   -0.6,   -0.8,   -1.0,   -0.4,    0.3,    0.7,    1.7,    1.6,    0.3,    1.2,    2.5,    3.7,    4.3,  999.0,    1.4,    0.4,    0.1,    0.4,   -0.0,    1.1,  999.0,  999.0,    0.1,    0.3,    0.3,    0.1,   -0.1,   -0.0,   -0.1,   -0.2,   -0.2,    0.1,    0.0,   -0.0,   -0.0,   -0.1,   -0.1,  999.0,    0.1,    0.0,    0.0,    0.0,    0.0,   -0.1,   -0.0,   -0.1,  999.0,   -0.8,   -0.7,   -1.3,   -1.7,   -3.1,  999.0,   -3.1,   -3.5,   -3.5,   -4.0
2007/09/23 11:20,   -0.1,    0.0,    0.2,    0.9,    0.3,    0.8,    0.9,    0.1,    0.5,   -0.0,   -0.2,   -0.3,   -0.2,   -0.3,   -0.1,   -0.7,   -0.9,   -1.2,   -0.8,   -1.5,   -1.9,   -1.5,   -0.7,   -0.4,   -0.3,   -0.6,   -0.5,   -0.1,    0.4,    1.2,    1.8,    0.9,    1.1,    2.1,    3.8,    4.1,  999.0,    1.7,    0.7,    0.3,    0.1,  999.0,    1.0,    0.1,    0.7,    0.7,    0.7,    1.0,    0.5,    0.4,    0.1,    0.2,   -0.3,   -0.0,  999.0,   -0.3,    0.0,  999.0,   -0.4,   -0.3,  999.0,  999.0,  999.0,    0.1,  999.0,  999.0,    0.5,  999.0,  999.0,  999.0,  999.0,  999.0,   -1.4,   -2.3,   -2.6,   -3.2,   -3.6,   -3.9,   -3.3,   -3.0
2007/09/23 11:30,   -0.0,    0.1,    0.2,    0.6,    0.9,    0.8,    1.0,    0.9,    0.3,    0.6,   -0.1,   -0.2,   -0.3,    0.1,   -0.4,   -0.6,   -0.7,   -0.9,   -0.9,   -0.6,   -1.1,   -1.8,   -0.9,   -0.9,   -0.9,   -1.4,   -1.2,   -0.4,    0.1,    0.3,    0.6,    0.5,    0.2,    0.9,    3.1,    3.4,    2.4,    1.3,    0.1,   -0.3,   -0.2,    0.5,    0.9,    0.3,    0.7,    0.9,    1.4,    1.4,    0.6,    0.4,    0.2,    0.1,   -0.1,    0.1,    0.0,    0.0,   -0.0,   -0.1,    0.0,    0.0,  999.0,  999.0,    0.0,    0.0,  999.0,   -0.0,   -0.0,  999.0,  999.0,    0.0,   -0.5,   -1.0,   -1.5,   -2.1,   -2.4,   -2.6,   -2.9,   -3.2,   -3.1,   -2.7
2007/09/23 11:40,   -0.2,    0.1,   -0.2,   -0.2,   -0.5,    0.1,   -0.4,   -0.2,    0.2,    0.4,   -0.0,   -0.4,   -0.6,   -0.3,   -0.8,   -0.2,   -0.4,   -0.0,    0.3,    0.2,   -0.1,   -0.5,   -0.2,   -0.7,   -0.4,   -0.6,   -0.3,    0.4,    0.1,    0.4,    0.5,    0.4,    0.3,    0.8,    1.5,    2.3,    1.5,    0.6,   -0.4,   -0.3,    0.2,    0.5,    0.6,  999.0,    0.5,    0.3,    0.9,    0.9,    0.6,    0.5,    0.2,    0.4,    0.1,   -0.0,    0.0,    0.0,    0.0,    0.0,    0.1,    0.0,   -0.0,  999.0,    0.0,    0.0,    0.0,   -0.0,   -0.1,    0.0,   -0.0,   -0.0,   -0.1,    0.0,   -0.6,   -1.0,   -0.6,   -0.9,  999.0,   -0.0,   -1.4,   -0.2
2007/09/23 11:50,   -0.1,   -0.0,   -0.0,   -0.0,   -0.2,    0.3,    0.8,    0.6,    0.3,    0.6,    0.8,   -0.4,   -0.4,   -0.8,   -0.7,   -0.5,   -0.4,   -0.5,   -0.4,    0.1,    0.1,   -0.8,   -0.6,   -0.4,    0.0,   -0.1,   -0.1,    0.5,    0.4,    0.2,    0.2,    0.2,   -0.1,    0.2,    0.9,    1.7,    1.1,    0.2,   -0.6,   -0.3,    1.2,    1.9,    1.6,    0.9,    1.1,    1.0,    1.9,    1.8,    1.3,    1.3,    1.1,    0.5,    0.5,    0.2,    0.1,    0.1,  999.0,  999.0,  999.0,  999.0,  999.0,  999.0,   -0.0,  999.0,   -0.0,    0.0,   -0.0,   -0.0,  999.0,   -0.3,   -0.2,   -0.2,  999.0,   -1.7,   -2.5,   -2.7,   -3.4,  999.0,   -3.8,  999.0
2007/09/23 12:00,    0.4,    0.2,    0.3,    0.2,    0.5,    0.8,    1.3,    1.4,    1.4,    0.8,    0.6,    0.5,    0.3,   -0.1,    0.1,   -0.8,   -0.9,   -0.5,   -0.6,    0.0,    0.5,    0.3,   -0.1,   -0.0,    0.3,   -0.2,   -0.4,   -0.1,    0.2,    0.0,    0.1,   -0.2,   -0.2,    0.2,    1.5,    2.7,    2.1,    0.8,   -0.0,   -0.4,    1.3,    1.3,    1.2,    1.0,    0.9,    0.9,    2.3,    1.6,    1.6,    1.4,    0.2,    0.4,    0.1,   -0.1,    0.2,    0.6,    0.0,   -0.1,    0.0,   -0.0,  999.0,   -0.0,    0.0,    0.0,   -0.0,    0.0,    0.2,   -0.0,  999.0,   -0.0,  999.0,    0.4,   -0.1,  999.0,  999.0,  999.0,    0.1,    0.1,    0.1,   -0.0
2007/09/23 12:10,   -0.1,    0.2,   -0.4,   -0.2,    0.3,    0.1,    0.7,    0.9,    0.4,    0.2,    0.1,   -0.3,   -0.6,   -0.8,   -1.0,   -1.4,   -0.6,   -1.0,   -0.0,    0.1,    0.4,    0.2,   -0.2,   -0.1,   -0.3,   -0.4,   -0.3,   -0.0,    0.1,    0.1,   -0.0,   -0.1,   -0.2,    1.0,    1.7,    2.5,    2.0,    0.7,    0.3,    0.6,    2.0,    1.9,    1.5,  999.0,    0.5,    1.2,    2.0,    1.4,    1.6,    1.2,    0.2,    0.3,    0.2,    0.1,   -0.0,    0.1,    0.1,    0.0,    0.0,   -0.0,    0.0,    0.1,  999.0,    0.0,    0.0,   -0.0,    0.0,   -0.0,    0.1,   -0.0,    0.2,    0.3,    0.0,   -0.1,   -0.1,   -0.0,    0.1,    0.0,    0.1,  999.0
2007/09/23 12:20,   -0.2,   -0.0,   -0.1,    0.1,    0.0,    0.2,    0.1,    0.2,   -0.1,    0.8,    1.0,    1.5,    0.1,   -0.9,   -2.0,   -1.0,    0.1,    0.1,   -0.4,    0.0,   -0.0,   -0.5,   -0.7,   -0.5,   -0.3,   -0.5,   -0.1,    0.1,    0.0,    0.0,   -0.1,    0.2,   -0.1,    0.8,    1.4,    1.2,    0.7,    0.0,   -0.3,   -0.4,    0.9,    1.4,    1.3,    0.7,    1.2,    1.8,    1.8,    1.5,    1.1,    1.0,    0.8,    0.2,    0.2,   -0.4,  999.0,   -0.0,   -0.3,    0.1,    0.1,   -0.0,    0.0,   -0.1,   -0.0,   -0.0,    0.0,    0.0,   -0.0,    0.0,   -0.0,   -0.0,  999.0,    0.1,   -0.1,    0.0,  999.0,    0.2,    0.0,    0.0,  999.0,   -0.0
2007/09/23 12:30,    0.4,   -0.2,   -0.0,   -0.3,   -0.3,    0.5,    0.3,    1.3,  999.0,    1.1,    0.7,    0.0,   -0.2,   -0.4,   -0.6,   -1.1,   -0.5,   -0.1,    0.5,    0.7,    1.6,   -0.3,   -0.2,   -0.5,   -0.3,   -1.4,   -0.6,   -0.0,   -0.3,   -0.2,   -0.2,   -0.2,    0.1,    0.6,    0.7,    0.3,    0.0,   -0.1,   -0.0,   -0.1,    1.4,    1.8,    2.3,    1.2,    2.5,    3.0,    2.6,    2.2,    1.9,    1.3,    0.8,    0.8,    0.2,   -0.1,  999.0,    0.0,   -0.0,    0.1,    0.2,  999.0,   -0.0,   -0.0,   -0.0,   -0.0,   -0.0,   -0.0,    0.0,   -0.1,    0.0,   -0.1,    0.2,  999.0,  999.0,   -0.0,   -0.0,    0.0,    0.0,    0.2,   -0.1,   -0.0
2007/09/23 12:40,   -0.0,    0.0,    0.1,    0.4,    0.4,    0.3,    1.0,    0.8,    1.0,    0.8,    0.0,   -0.1,   -0.5,    0.0,   -0.5,   -1.6,  999.0,   -0.3,   -1.3,   -0.5,   -0.5,   -0.6,   -0.3,   -0.5,   -0.3,   -0.1,   -0.5,    0.4,    0.6,    0.3,    0.1,    0.2,    0.2,    0.3,    0.5,    0.1,   -0.3,   -0.4,   -0.2,    0.3,    0.8,    1.1,    1.2,    2.0,    2.3,    2.0,    1.5,    1.2,    1.3,    0.9,    0.5,    0.4,    0.0,   -0.1,   -0.1,   -0.1,   -0.1,   -0.0,    0.2,    0.3,    0.0,    0.0,   -0.0,   -0.1,    0.0,    0.0,    0.1,   -0.0,    0.2,    0.1,    0.1,    0.3,  999.0,    0.0,   -0.1,    0.0,  999.0,    0.1,   -0.0,   -0.0
2007/09/23 12:50,    0.1,   -0.2,    0.1,    0.1,    0.3,    0.8,    0.0,    0.0,    0.8,    1.3,    1.3,    0.2,    0.3,    0.1,   -0.2,   -1.0,   -1.6,   -0.9,  999.0,   -0.9,    1.3,    0.9,  999.0,  999.0,    0.8,  999.0,  999.0,   -0.6,    0.6,    0.1,   -0.0,    0.1,    0.6,    1.1,    0.9,    0.5,    0.3,    0.2,   -0.6,   -0.2,    0.6,    0.8,    1.6,    1.0,    1.8,    2.1,    2.0,    1.8,    2.1,    2.0,  999.0,    1.1,    0.5,  999.0,    0.3,    0.2,    0.1,    0.2,    0.2,    0.2,   -0.1,    0.1,    0.1,   -0.0,   -0.0,   -0.0,   -0.0,    0.0,    0.2,    0.1,    0.0,    0.3,    0.1,    0.1,    0.0,    0.1,   -0.0,    0.0,   -0.1,   -0.0
2007/09/23 13:00,    0.4,    0.3,   -0.1,   -0.0,    0.1,    0.8,    0.6,    1.2,    0.9,    0.8,    0.5,    0.7,   -0.7,   -0.1,    0.0,  999.0,   -0.4,    0.6,   -1.8,   -0.2,   -0.4,    0.1,   -0.1,   -0.0,    0.3,    0.1,   -0.0,    0.6,    0.6,    0.1,    0.3,    0.3,    0.2,    0.6,    0.4,    0.0,   -0.1,   -0.6,   -0.9,   -0.5,   -0.2,    0.5,    0.8,    0.3,    0.9,    1.0,    1.0,    1.4,    2.1,    1.4,  999.0,    0.9,    0.4,    0.1,    0.0,   -0.0,   -0.1,    0.0,    0.0,    0.0,  999.0,    0.1,   -0.0,   -0.0,  999.0,   -0.1,    0.0,    0.0,    0.1,   -0.1,    0.3,    0.1,   -0.1,   -0.1,   -0.0,    0.0,    0.1,   -0.0,   -0.0,    0.0
2007/09/23 13:10,    0.4,   -0.0,   -0.1,    0.4,    0.3,    0.3,    0.2,    0.0,    0.2,   -0.2,   -1.5,   -1.0,   -1.9,   -1.6,   -0.7,   -1.0,   -0.9,   -0.8,   -0.5,    0.3,   -0.1,   -0.4,   -0.4,   -0.4,   -0.2,    0.0,    0.0,    0.2,    0.3,    0.2,    0.2,    0.6,    0.7,    1.1,    1.2,    1.3,    0.8,    0.2,    0.2,    0.2,    0.9,    0.9,    1.1,    0.5,    1.3,    1.5,    0.9,    0.6,    1.4,    1.7,    1.7,    1.5,    0.7,    0.4,    0.1,    0.1,    0.1,    0.1,   -0.1,   -0.3,   -0.1,    0.2,    0.2,   -0.0,   -0.2,   -0.2,   -0.0,  999.0,  999.0,  999.0,  999.0,    0.1,  999.0,    0.1,   -0.0,  999.0,    0.1,   -0.0,   -0.0,    0.0
2007/09/23 13:20,  999.0,    0.0,    0.1,    0.1,    0.4,    0.5,    0.3,    0.5,   -0.2,   -0.4,   -0.3,   -0.4,   -0.5,   -0.7,   -0.3,   -0.6,   -0.6,   -0.8,   -0.9,   -1.1,   -1.3,   -1.2,   -1.1,   -0.9,   -0.6,   -0.5,   -0.4,   -0.3,    0.0,    0.2,    0.3,    0.4,    0.7,    0.8,    0.9,    1.0,    0.5,    0.2,   -0.0,    0.5,    0.6,    0.5,    0.5,    0.7,    1.0,    1.3,    1.4,    1.4,    1.2,    1.9,    1.6,    1.1,    0.8,    0.6,    0.1,   -0.1,   -0.0,   -0.2,    0.1,    0.3,    0.5,    0.6,  999.0,   -0.1,   -0.0,   -0.0,   -0.0,  999.0,   -0.1,    0.0,  999.0,   -0.1,    0.2,   -0.1,  999.0,   -0.0,   -0.0,   -0.1,    0.1,    0.0
2007/09/23 13:30,   -0.1,    0.1,    0.2,    0.2,    0.1,   -0.3,   -0.4,   -0.4,   -0.6,   -0.7,   -0.6,   -0.9,   -0.9,   -1.0,   -0.0,   -0.4,    0.5,   -0.3,   -1.1,   -0.7,   -1.3,   -1.1,   -0.9,   -0.6,   -0.3,   -0.2,   -0.3,    0.2,    0.6,  999.0,    1.4,    1.8,    1.3,    1.6,    1.9,    1.2,    0.7,    0.6,    0.6,    0.2,    0.1,   -0.2,    0.0,    0.0,    0.5,    0.8,    0.8,    0.8,    0.9,    1.2,    0.9,    0.6,    0.3,    0.0,   -0.2,   -0.3,   -0.5,   -0.4,   -0.4,   -0.0,   -0.0,    0.3,    0.6,    0.1,    0.1,   -0.0,  999.0,    0.7,    0.0,    0.1,   -0.0,   -0.1,   -0.0,   -0.0,   -0.0,    0.0,    0.0,    0.0,   -0.0,   -0.0
2007/09/23 13:40,  999.0,   -0.1,    0.2,    0.3,    0.8,    1.9,    1.5,    1.0,    0.3,   -0.4,   -0.4,   -0.6,   -0.7,   -0.5,   -0.3,   -0.2,   -0.5,   -1.5,   -2.9,   -2.5,   -2.3,   -0.6,   -1.7,   -0.9,   -0.9,   -0.2,   -0.2,    0.9,    0.1,    1.0,    0.9,    0.9,    0.9,    1.0,    0.9,    1.3,    1.0,    0.8,    0.3,    0.4,  999.0,    1.6,    1.4,    1.3,    1.8,    1.9,    2.1,    1.6,    2.0,    2.0,    1.8,    1.2,    1.5,    0.6,    0.6,    0.2,    0.2,    0.2,    0.3,    0.3,    0.3,    1.1,    2.0,  999.0,   -0.0,    0.0,    1.0,    2.1,  999.0,   -0.0,    0.0,  999.0,    0.1,  999.0,    0.0,   -0.1,    0.1,    0.0,    0.0,    0.0
2007/09/23 13:50,   -0.1,    0.1,    0.1,    0.3,    1.3,    1.1,    1.2,    0.3,   -0.4,   -0.7,   -1.3,   -1.9,   -1.7,   -1.4,   -0.4,   -0.0,   -0.7,   -0.7,   -0.2,   -0.7,   -0.3,    0.5,    1.0,    1.0,    0.9,    1.3,    1.0,    1.5,    1.8,    1.4,    1.2,    1.4,    0.9,    1.4,    1.1,    1.2,    0.6,    0.5,  999.0,    0.9,    1.0,    1.1,    1.6,    1.1,    1.2,    1.3,    1.0,    0.9,    1.1,    1.5,    1.9,    0.8,    0.7,    0.2,    0.1,   -0.1,   -0.1,   -0.2,    0.0,   -0.1,    0.1,    0.3,  999.0,    0.2,    0.2,  999.0,   -0.0,  999.0,  999.0,   -0.1,    0.0,    0.0,   -0.1,    0.1,   -0.0,    0.1,    0.0,    0.0,   -0.1,    0.1
2007/09/23 14:00,    0.0,    0.1,    0.2,    0.2,    0.5,    0.8,    0.9,    0.8,    0.1,   -0.5,   -1.1,   -1.6,   -1.7,   -1.6,   -1.0,   -1.2,   -1.1,   -1.1,   -0.8,   -0.6,   -0.5,   -0.2,    0.2,    0.3,    0.5,    0.3,    0.6,    0.5,    0.9,    1.5,    1.1,    0.9,    0.6,    0.8,    1.4,    1.2,    0.9,    1.0,    0.6,    0.1,    0.0,    0.0,    1.2,    1.2,    1.7,    2.0,    2.0,    1.5,    2.0,    2.1,  999.0,    1.7,    1.1,    0.8,   -0.2,    0.2,    0.2,   -0.0,    0.0,  999.0,   -0.0,  999.0,  999.0,   -0.0,  999.0,    0.0,    0.9,  999.0,  999.0,    0.6,   -0.1,   -0.3,   -0.5,  999.0,  999.0,  999.0,  999.0,   -3.1,   -3.3,   -3.2
2007/09/23 14:10,  999.0,   -0.0,  999.0,  999.0,    0.2,    0.7,    0.7,    1.1,    0.6,   -0.1,   -0.5,   -0.4,   -0.4,   -0.3,   -0.3,   -0.3,   -1.0,   -1.5,   -1.2,   -1.1,   -0.3,   -0.1,   -0.0,    0.1,    0.2,    0.0,    0.0,    0.4,    0.4,    0.9,    0.4,    0.1,    0.0,    0.5,    0.4,    0.0,   -0.2,   -0.0,   -0.1,   -0.1,   -0.3,   -0.3,   -0.5,   -0.3,    0.2,    0.7,    1.6,    1.7,    1.7,    2.4,    0.6,    1.7,    1.3,    0.8,    0.9,    0.7,   -0.1,    1.1,    0.2,    0.9,  999.0,  999.0,    2.5,  999.0,  999.0,  999.0,  999.0,  999.0,  999.0,  999.0,    0.8,    1.2,    1.5,   -0.3,   -1.2,   -2.4,   -2.5,   -2.7,   -2.4,   -2.5
2007/09/23 14:20,    0.2,    0.5,    0.2,   -0.0,    0.5,    0.5,    1.6,    1.3,    0.7,   -0.0,   -0.2,   -0.7,   -1.0,   -0.9,   -0.7,   -0.1,   -0.6,   -0.8,   -1.2,   -0.5,   -0.5,   -0.9,   -0.2,    0.2,    0.0,   -0.1,    0.0,   -0.4,    0.3,    0.1,    0.1,    0.5,    0.1,    1.1,    0.8,    0.6,    0.0,    0.8,    0.7,    0.2,   -0.1,   -0.0,    0.9,    0.7,    1.8,    1.9,    2.8,    2.5,    3.1,    2.0,  999.0,    1.8,    1.0,    0.3,   -0.1,  999.0,  999.0,  999.0,    0.2,  999.0,  999.0,    0.9,  999.0,  999.0,  999.0,  999.0,  999.0,  999.0,   -0.7,   -0.4,   -0.0,   -0.2,   -0.1,   -0.8,   -0.9,   -0.7,   -1.0,  999.0,   -0.5,  999.0
2007/09/23 14:30,  999.0,    0.2,    0.0,    0.1,    0.3,    1.0,  999.0,    0.4,    0.6,   -0.4,   -0.4,   -0.8,   -1.2,   -0.6,   -0.6,   -0.7,   -1.0,   -1.1,   -1.2,   -1.3,   -0.6,   -0.3,   -0.2,    0.1,   -0.0,    0.0,   -0.1,   -0.1,    0.2,    0.6,    0.7,    0.6,    0.3,    0.4,    0.6,    0.3,   -0.1,    0.2,    0.7,    0.1,   -0.3,   -0.4,   -0.2,    0.2,    0.5,  999.0,    1.2,    1.5,    2.4,    1.5,  999.0,    1.2,    0.8,    0.5,    0.2,    0.1,    0.3,    0.2,  999.0,  999.0,    1.8,    2.4,  999.0,  999.0,    2.9,  999.0,  999.0,  999.0,  999.0,  999.0,  999.0,  999.0,  999.0,  999.0,  999.0,  999.0,  999.0,  999.0,  999.0,  999.0
2007/09/23 14:40,  999.0,    0.2,   -0.1,   -0.0,    0.3,   -0.4,    0.2,    0.6,    0.5,   -0.4,   -0.3,   -0.6,   -0.5,   -0.2,    0.0,   -0.2,   -0.9,   -1.2,   -1.3,   -1.2,   -0.8,   -0.4,    0.1,    0.1,   -0.0,   -0.1,    0.1,    0.1,    0.2,    0.1,    0.1,    0.1,    0.3,    0.4,    0.6,    0.7,    0.6,    0.6,    0.4,    0.6,    0.1,   -0.5,   -0.8,   -0.5,    0.6,    1.0,    1.3,    1.2,    1.4,    0.5,    0.7,    0.6,   -0.1,   -0.3,  999.0,   -0.2,    0.2,    0.2,    0.4,    0.7,    1.7,    2.2,    2.8,    1.4,    2.2,    2.0,    1.8,    0.4,    0.4,   -0.1,  999.0,  999.0,   -1.8,   -2.3,   -3.2,   -4.0,   -4.1,   -4.0,   -4.0,   -4.1
2007/09/23 14:50,  999.0,    0.2,    0.2,    0.1,    0.5,    0.4,    1.6,    1.7,    1.6,    0.6,   -0.2,   -0.3,   -0.4,   -0.8,   -1.0,   -0.4,   -0.7,   -0.9,   -0.7,   -0.4,   -0.1,   -0.0,    0.2,    0.3,    0.2,   -0.0,   -0.1,   -0.3,   -0.1,  999.0,  999.0,  999.0,    0.1,    0.1,   -0.0,   -0.1,    0.3,   -0.0,    0.7,  999.0,    0.1,   -0.1,   -0.3,   -0.1,    0.2,    0.6,    1.0,    1.3,    1.0,    0.7,    0.8,    0.4,   -0.2,   -0.4,   -0.1,   -0.0,    0.4,    0.9,    1.7,    2.1,    3.4,    3.7,    3.9,    3.5,    3.0,    1.3,    0.9,    0.8,    1.4,    2.0,    1.8,   -0.1,   -1.2,   -2.2,   -3.9,   -4.3,   -4.5,   -4.8,   -4.9,   -4.5
2007/09/23 15:00,  999.0,    0.1,    0.2,    0.2,    0.4,    0.7,    1.1,    1.6,    0.7,    0.4,   -0.1,   -0.4,   -0.7,   -0.7,   -0.9,   -0.7,   -1.3,   -1.3,   -0.3,   -0.1,    0.1,    0.2,    0.4,    0.2,    0.2,    0.1,   -0.1,   -0.1,  999.0,   -0.1,   -0.2,    0.3,    0.2,    0.4,    0.4,    0.5,   -0.2,   -0.1,    0.5,    0.2,   -0.2,   -0.8,   -0.6,   -0.1,    0.2,    0.4,    0.7,    0.9,    0.7,    0.7,    0.5,    0.3,   -0.1,   -0.5,   -0.7,   -0.8,   -0.7,   -0.1,    0.5,    1.5,    1.5,    3.1,    2.9,    3.1,    2.7,    1.7,    1.5,    1.8,    3.0,    3.1,  999.0,  999.0,   -2.7,   -4.2,   -4.7,   -5.5,   -5.2,   -5.4,   -5.4,   -5.1
2007/09/23 15:10,    0.1,    0.3,    0.2,    0.1,    0.3,    0.2,    0.3,    0.4,    0.2,   -0.0,   -0.3,   -0.3,   -0.6,   -0.8,   -1.2,   -1.4,   -1.2,   -2.0,   -0.7,   -0.1,    0.7,    0.8,    0.8,    1.0,    1.1,    0.5,   -0.1,   -0.1,    0.5,   -0.1,   -0.1,    0.0,    0.2,    0.4,    0.1,   -0.1,   -0.4,   -0.3,   -0.2,   -0.0,   -0.9,   -2.0,   -1.5,   -0.7,   -0.1,    0.7,    1.7,    1.6,    0.9,    0.0,    1.6,    0.9,    0.6,    0.3,   -0.6,    0.2,    0.8,    1.5,    1.0,    2.1,    3.4,    3.2,  999.0,  999.0,  999.0,  999.0,  999.0,  999.0,  999.0,    0.3,   -0.7,   -2.5,   -4.0,   -5.1,   -5.4,   -5.7,   -5.7,   -5.5,   -5.4,   -5.4
2007/09/23 15:20,    0.1,    0.1,    0.1,    0.3,    0.5,    0.7,    0.9,    1.0,    0.5,    0.5,    0.2,   -0.1,   -0.6,   -0.8,   -0.5,   -0.6,   -0.5,   -0.4,   -0.2,   -0.2,    0.3,    1.1,    1.0,    0.8,    0.6,    0.5,    0.3,   -0.8,   -0.2,   -0.9,   -0.9,   -0.3,    0.2,    0.1,    0.2,    0.1,   -0.8,   -0.2,   -0.3,   -0.1,   -0.5,   -0.5,   -0.1,    0.8,    0.9,    1.3,    1.8,    2.1,    1.8,    1.6,    1.4,    1.2,    0.2,   -0.2,    0.2,    1.1,    1.5,    2.2,    3.1,    4.0,    4.2,    3.8,    3.2,  999.0,  999.0,  999.0,  999.0,  999.0,   -0.4,   -0.8,   -1.5,   -2.8,   -3.8,   -4.2,   -4.4,   -4.6,   -4.5,   -4.3,   -4.1,   -4.6
2007/09/23 15:30,    0.1,    0.2,    0.3,    0.4,    0.4,    0.7,    0.9,    0.9,    0.5,    0.4,    0.5,    0.1,    0.1,   -0.6,   -1.1,   -1.3,   -1.6,   -1.4,   -1.2,   -0.4,   -0.3,    0.4,    0.3,    0.7,    0.8,    1.1,    0.4,   -0.2,    0.2,   -0.9,   -0.8,   -0.7,   -0.7,   -0.5,   -0.8,   -1.0,   -0.5,    0.2,    0.9,    0.2,   -0.0,   -0.2,   -0.0,    0.4,    0.7,    0.9,    1.0,    0.9,    0.9,    0.7,    0.1,   -0.5,   -0.9,   -1.2,   -1.0,   -2.1,    0.8,    1.7,    1.8,    2.0,    1.9,    1.3,    0.8,   -0.2,   -0.4,    0.1,    0.2,    0.0,   -0.7,   -1.6,   -2.6,   -4.2,   -4.4,   -5.0,   -4.9,   -4.6,   -4.4,   -4.2,   -3.9,   -3.8
2007/09/23 15:40,    0.1,    0.3,    0.2,    0.3,    0.6,    1.0,    1.1,    1.6,    0.7,    0.7,    0.3,    0.0,    0.0,   -0.5,   -1.2,   -1.3,   -1.7,   -1.8,   -1.5,   -0.6,   -0.2,   -0.1,    1.1,    0.7,    0.7,    1.0,    0.8,    0.2,   -0.9,   -0.0,   -0.2,   -0.5,    0.1,   -0.0,   -0.5,   -0.3,    0.1,    0.7,  999.0,    0.3,    0.2,    0.0,   -0.2,   -0.6,   -0.4,    0.2,    1.0,    1.5,    2.4,    1.5,    0.5,   -0.6,   -1.5,   -3.0,   -3.3,   -1.8,   -0.6,   -1.0,   -0.6,   -1.0,   -0.8,   -1.2,   -1.5,   -1.2,   -0.6,   -0.7,   -0.8,   -1.7,   -3.0,   -4.7,   -5.7,   -5.4,   -5.7,   -6.1,   -6.2,   -6.3,   -5.7,   -5.7,   -5.4,   -5.3
2007/09/23 15:50,    0.2,    0.1,    0.1,    0.3,    0.9,    1.2,    1.2,    1.3,    1.1,    1.1,    0.8,    0.2,   -0.0,    0.0,   -0.1,   -0.2,   -0.1,   -0.1,    0.4,    0.7,    1.3,    0.6,    0.5,    0.8,    0.6,    2.3,    1.7,    0.4,    0.2,   -0.2,   -0.6,    0.2,   -0.5,   -0.4,   -1.3,   -0.8,   -0.4,    0.6,    0.3,    0.1,    0.1,   -0.2,   -0.5,   -0.6,   -0.1,    0.6,    1.1,    1.5,    0.1,   -0.1,   -0.6,   -0.4,   -0.3,    0.8,    1.6,    1.9,    1.5,    0.4,   -0.3,   -0.9,   -1.5,   -1.3,   -1.4,   -1.6,   -2.1,   -2.8,   -3.1,   -4.0,   -4.5,   -4.6,   -4.0,   -4.2,   -4.4,   -4.8,  999.0,  999.0,  999.0,  999.0,  999.0,  999.0
2007/09/23 16:00,    0.1,    0.2,    0.2,    0.1,    0.8,    1.2,    0.6,    0.8,    0.6,    0.7,    0.6,    0.6,    0.1,   -0.4,   -0.6,   -0.8,   -0.9,   -1.2,   -1.3,   -0.9,   -0.4,   -0.2,    0.2,    1.0,    0.5,    1.5,    1.3,    0.8,    0.1,   -0.3,   -0.4,   -0.1,   -0.3,   -0.4,   -0.7,   -0.8,   -0.0,    0.8,    0.6,    1.2,    0.4,   -0.1,    0.2,    0.9,    1.5,    2.4,    2.3,    1.8,    1.4,    1.1,    1.3,    2.2,    1.1,    1.3,    1.1,    1.0,    0.9,    0.7,    0.6,    0.5,    0.4,   -0.5,   -0.8,  999.0,    0.2,   -0.5,  999.0,  999.0,  999.0,  999.0,  999.0,  999.0,   -0.1,   -0.0,  999.0,    1.6,    0.7,  999.0,  999.0,   -0.7
2007/09/23 16:10,   -0.0,    0.1,    0.1,    0.3,    0.5,    0.4,    0.6,    0.6,    0.6,    0.7,    0.3,    0.1,   -0.2,   -0.8,   -1.7,   -2.0,   -2.2,   -1.3,   -0.5,   -0.1,    0.2,    0.4,    0.5,    0.4,    0.2,    1.9,    2.0,    0.0,   -0.6,   -0.4,   -0.3,   -0.0,   -0.1,   -0.2,   -0.4,   -0.3,    0.2,    0.4,    0.5,    0.2,   -0.4,   -1.1,   -1.2,   -0.6,    0.9,    1.4,    1.6,    1.7,    1.0,    0.5,   -0.0,   -0.6,   -1.2,   -1.3,   -1.6,   -1.2,   -0.9,   -0.4,    0.1,   -0.6,   -1.0,   -2.0,  999.0,  999.0,  999.0,  999.0,  999.0,  999.0,  999.0,  999.0,  999.0,  999.0,  999.0,  999.0,  999.0,  999.0,  999.0,  999.0,  999.0,  999.0
2007/09/23 16:20,    0.1,    0.1,    0.2,    0.3,    0.9,    1.3,    0.6,    0.2,    0.1,    0.5,    0.7,    0.1,   -0.2,   -0.8,   -1.4,   -1.8,   -1.7,   -1.8,   -1.6,   -1.4,   -0.9,    0.1,    0.5,    1.3,    1.0,    1.3,    1.4,    0.6,    0.0,   -0.1,   -0.0,   -0.2,    0.0,   -0.2,    0.1,    0.7,  999.0,    1.3,    0.7,   -0.2,    0.6,    1.1,    1.5,    1.7,    1.4,    1.6,    1.8,    1.5,    1.8,    0.6,   -0.0,   -0.5,   -1.3,   -1.7,   -1.8,   -1.1,   -0.3,   -0.4,   -0.3,   -0.8,   -1.0,  999.0,  999.0,   -0.3,   -0.0,  999.0,    0.0,   -0.2,   -0.0,  999.0,   -0.3,    0.3,    0.0,    0.1,   -0.0,   -0.1,  999.0,    0.0,    0.0,  999.0
2007/09/23 16:30,    0.0,   -0.0,    0.1,    0.2,    1.2,    2.3,    0.7,    0.1,    0.2,    0.4,    0.1,    0.0,    0.2,   -0.1,   -0.6,   -1.0,   -1.3,   -1.2,   -1.4,   -0.8,   -0.6,   -0.0,    0.5,    0.4,    0.6,    2.0,    1.0,    0.4,   -0.1,   -0.7,   -0.2,   -0.2,    0.0,    0.1,   -0.1,    0.5,    0.9,    1.0,    1.0,    0.9,    1.3,    2.2,    3.5,    3.0,  999.0,    4.0,    3.2,    2.1,    1.2,   -0.2,   -1.5,   -2.3,   -2.7,   -2.7,   -2.6,   -2.0,   -2.0,   -2.2,   -1.8,  999.0,  999.0,    0.0,  999.0,    0.1,  999.0,  999.0,  999.0,  999.0,  999.0,  999.0,  999.0,    0.1,  999.0,   -0.0,   -0.1,   -0.3,   -0.6,   -1.1,   -1.2,   -1.0
2007/09/23 16:40,    0.2,    0.0,   -0.0,    0.1,    0.9,    2.4,    1.2,    0.8,    0.5,    0.6,    0.2,    0.2,   -0.2,   -0.4,   -0.8,   -1.1,   -1.5,   -1.6,   -1.4,   -1.0,   -0.3,    0.4,    0.6,    0.8,    0.4,    0.8,   -0.3,   -1.0,   -2.1,   -1.7,   -1.4,   -0.7,   -0.1,    0.1,   -0.2,   -0.1,    0.2,    0.1,    0.8,    1.5,    1.5,    2.2,    3.9,    4.1,    3.7,  999.0,    2.9,    0.5,   -1.3,   -3.1,   -4.3,   -5.0,   -6.1,   -6.2,   -6.2,   -6.1,   -6.9,   -6.9,  999.0,  999.0,  999.0,  999.0,  999.0,  999.0,  999.0,  999.0,  999.0,  999.0,  999.0,  999.0,  999.0,  999.0,  999.0,  999.0,  999.0,  999.0,  999.0,  999.0,  999.0,  999.0
2007/09/23 16:50,    0.0,    0.1,    0.0,    0.6,    2.1,    2.2,    2.0,    0.9,    0.3,    0.5,    0.3,   -0.1,   -0.4,   -0.7,   -0.7,   -0.8,   -0.5,   -1.0,   -1.3,   -0.8,   -1.7,   -0.7,    0.6,    0.9,    1.4,    1.2,    1.0,    0.3,   -0.2,   -0.3,   -0.0,   -0.0,    0.3,    0.7,    0.8,    0.8,    0.6,    0.7,    1.4,    2.4,    3.3,    3.3,    3.4,    3.9,    1.8,    1.5,   -0.1,   -1.3,   -2.9,   -3.3,   -3.2,   -3.1,   -2.9,   -1.7,   -2.8,   -2.0,   -2.3,   -1.1,   -1.2,   -0.7,  999.0,   -2.6,   -1.4,   -1.5,   -1.4,   -2.0,   -2.1,   -2.0,  999.0,  999.0,  999.0,  999.0,  999.0,  999.0,  999.0,   -2.1,  999.0,  999.0,  999.0,  999.0
2007/09/23 17:00,    0.0,    0.0,    0.1,    1.3,    2.7,    1.8,    1.2,    0.6,   -0.1,    0.1,    0.0,   -0.3,   -0.2,   -0.2,   -0.5,   -0.8,   -0.6,   -0.7,   -0.8,   -0.5,   -0.3,   -0.2,    0.3,    0.9,    1.6,    0.8,    0.6,    0.3,   -0.3,   -0.0,    0.2,    0.7,    0.9,    0.9,    0.4,    0.4,    0.9,    1.7,    3.2,    3.7,    3.4,    3.0,    2.3,    1.1,    0.5,   -1.2,   -2.7,   -4.6,   -3.9,   -3.3,   -2.5,   -2.2,   -2.8,   -1.8,   -0.6,   -1.3,   -0.5,   -1.6,   -2.0,   -2.3,   -2.4,   -2.5,  999.0,   -3.7,   -3.1,   -4.6,   -4.7,   -4.5,   -3.7,  999.0,  999.0,  999.0,  999.0,  999.0,  999.0,  999.0,  999.0,  999.0,  999.0,  999.0
2007/09/23 17:10,    0.1,    0.1,    0.3,    1.4,    2.5,    3.2,    1.0,    0.2,   -0.1,   -0.3,   -0.4,   -0.2,   -0.3,   -0.1,   -0.3,   -1.5,   -1.4,   -1.6,   -1.7,   -2.0,   -0.9,   -0.2,    0.2,    0.9,    1.6,    1.7,    1.5,    0.8,   -0.4,   -0.4,    0.2,    0.5,    0.6,    0.4,   -0.6,    0.0,  999.0,    1.2,    3.1,    4.7,    5.2,    4.9,    3.9,    1.6,    0.9,   -0.5,   -0.5,  999.0,    0.4,   -0.3,   -1.1,   -1.7,   -1.9,   -1.6,   -1.1,   -0.7,   -0.9,   -2.3,   -3.0,   -3.0,   -2.9,   -4.9,   -4.6,   -3.6,   -5.1,   -4.8,   -5.0,   -3.1,   -1.9,   -3.1,   -3.3,   -3.7,   -1.8,   -0.5,  999.0,  999.0,  999.0,  999.0,  999.0,  999.0
2007/09/23 17:20,  999.0,   -0.0,    0.3,    1.0,    2.3,    2.5,    1.9,    0.7,    0.3,    0.4,   -0.8,  999.0,    0.9,    8.3,    3.9,    6.5,    4.6,    4.8,    5.3,    7.5,    5.5,    5.3,    5.7,    5.7,    5.6,    6.6,    3.3,    4.6,    2.7,    4.0,    3.4,    3.8,    3.6,    3.9,    3.6,    4.4,    5.7,    4.4,    4.6,    5.1,    5.7,    4.5,    5.0,    3.1,    0.7,   -0.2,   -1.2,   -2.0,   -2.6,   -3.2,   -3.3,   -3.3,   -3.8,   -3.6,   -3.7,   -3.8,   -3.5,   -3.9,   -3.2,   -3.0,   -2.4,   -1.9,   -3.4,   -4.6,   -3.8,  999.0,   -3.1,   -3.0,   -3.2,   -3.4,   -3.6,   -3.5,   -3.5,   -3.6,   -3.6,   -3.7,   -3.7,   -3.2,   -3.5,   -4.0
2007/09/23 17:30,   -0.0,    0.4,    0.8,    1.5,    2.6,    3.8,    3.6,    2.9,    1.3,    0.6,    0.9,    0.7,    1.9,    1.7,    1.4,    1.7,    1.2,    0.8,    0.6,    0.4,    0.6,    0.6,    1.2,    1.0,    1.0,    0.7,   -0.4,   -1.6,   -2.2,   -1.1,   -1.2,   -1.2,   -0.9,   -0.9,   -0.8,    0.2,    0.9,   -2.5,    2.7,    3.8,    2.8,    2.7,    1.3,    0.9,   -0.8,   -1.9,   -3.1,   -4.1,   -4.5,   -4.1,   -3.6,   -2.5,   -1.9,   -1.4,   -1.0,   -0.0,   -0.3,   -0.5,   -0.7,   -1.1,   -1.3,   -1.9,   -1.3,   -1.6,   -1.2,   -1.4,   -1.5,   -1.7,   -1.7,   -1.5,   -1.9,   -1.7,   -1.6,   -1.6,   -1.6,   -1.6,   -3.0,   -3.5,   -4.2,  999.0
2007/09/23 17:40,    0.1,    0.8,    1.6,    3.3,    3.3,    3.5,    3.1,    2.2,    1.0,    3.8,  999.0,  999.0,   -2.6,   -2.3,  999.0,    0.3,   -2.0,   -4.2,   -3.5,   -3.3,   -1.8,   -0.4,    2.9,    0.9,    2.5,    2.8,   -0.8,   -1.0,    0.0,    0.7,   -1.4,   -1.2,   -2.5,   -1.1,   -2.7,   -2.1,   -0.2,    1.9,    2.8,    3.7,    3.5,    2.5,    0.4,   -1.2,   -1.7,   -2.8,   -3.7,   -4.9,   -5.3,   -4.7,   -4.2,   -2.7,   -1.9,   -1.8,   -0.6,    0.1,   -0.3,   -0.3,   -0.5,   -0.9,   -0.8,   -0.6,   -1.1,   -1.5,   -1.4,   -1.9,   -2.7,   -3.1,   -3.4,   -3.5,   -4.8,   -5.4,   -6.4,   -6.8,   -6.8,   -6.0,   -6.5,   -5.0,   -4.2,  999.0
2007/09/23 17:50,  999.0,    0.1,    1.2,    1.7,    9.3,    6.9,    4.9,    2.9,   -0.2,   -2.3,   -1.3,   -2.2,   -2.8,   -2.1,   -2.1,   -2.3,   -2.3,   -2.3,   -2.8,   -1.6,   -1.7,   -2.0,   -1.5,   -1.0,   -1.1,   -2.3,   -4.2,   -4.6,   -4.0,   -3.9,   -6.1,   -5.1,   -6.7,   -6.2,   -4.0,   -4.0,  999.0,   -1.3,   -0.5,    0.1,   -0.3,   -0.4,   -0.5,   -1.3,   -1.3,   -1.9,   -2.6,   -3.5,   -3.8,   -3.1,   -1.9,   -1.7,   -0.9,   -0.5,    0.2,    0.5,    0.3,   -0.3,   -0.3,   -0.4,   -0.6,   -1.0,   -1.1,   -1.6,   -1.6,   -2.4,   -2.4,   -2.4,   -2.9,   -3.3,   -3.7,   -5.2,   -5.6,   -3.8,   -5.4,   -3.8,   -4.5,   -2.7,   -2.3,   -2.1
2007/09/23 18:00,    1.0,    1.5,    2.5,    3.1,    3.9,    4.5,    3.2,    3.3,    2.6,    1.0,   -0.5,   -1.4,   -1.4,   -1.1,   -0.9,   -1.0,   -0.8,   -1.1,   -1.3,   -0.9,   -1.2,    0.9,    1.8,    0.9,    0.7,   -0.5,    1.1,    0.8,   -0.2,    0.9,    1.1,    0.6,    0.0,    0.2,    0.3,    1.0,    1.1,    1.3,    1.2,   -0.7,   -3.3,  999.0,   -5.6,   -5.7,   -5.1,   -4.8,   -4.7,   -4.0,   -2.9,   -2.2,   -1.6,   -1.8,   -1.9,   -0.8,   -0.5,   -0.4,   -1.0,   -1.7,   -1.7,   -1.7,   -2.1,   -2.1,   -2.0,   -2.5,   -2.5,   -2.6,   -2.7,   -3.1,   -3.6,   -4.1,   -5.0,   -5.5,   -4.8,   -5.5,   -5.9,  999.0,   -5.2,   -3.7,  999.0,   -3.6
2007/09/23 18:10,  999.0,    0.6,    1.7,    2.9,    3.9,    4.4,    3.6,    3.6,    2.9,    2.2,    1.4,    0.2,   -0.2,    0.1,   -0.1,   -0.2,   -0.2,  999.0,  999.0,   -0.2,    0.2,  999.0,  999.0,  999.0,  999.0,    1.2,    0.0,    0.5,    0.4,    0.7,    1.1,    0.4,   -0.1,   -1.0,   -1.1,   -1.3,   -1.4,   -1.4,   -1.8,  999.0,  999.0,  999.0,   -4.9,   -4.8,   -3.1,   -2.4,   -2.4,   -2.1,  999.0,  999.0,   -1.3,   -1.3,   -1.7,    0.3,   -0.8,   -0.8,   -1.7,   -1.9,   -1.5,   -1.5,   -1.6,   -1.9,   -2.1,   -2.4,   -2.9,   -3.2,   -3.6,   -3.8,   -4.2,   -4.6,   -5.1,   -4.6,   -4.8,   -5.6,   -5.5,  999.0,  999.0,  999.0,  999.0,  999.0
2007/09/23 18:20,   -0.0,    0.2,    0.3,    0.6,  999.0,  999.0,    1.7,    1.6,    1.2,    1.4,    0.2,   -0.7,  999.0,   -1.0,   -1.4,   -1.1,   -1.0,   -0.7,   -0.5,   -0.7,   -0.1,    0.5,    0.6,    1.9,    0.0,   -0.1,   -0.3,   -0.3,    0.7,    0.8,    1.0,    0.3,    0.0,   -0.2,   -0.0,    0.3,    0.4,    0.2,   -0.2,   -0.1,   -0.3,   -1.3,   -2.5,   -2.0,  999.0,   -1.2,   -0.7,  999.0,   -1.7,  999.0,  999.0,   -0.7,   -0.9,  999.0,   -1.5,   -2.9,   -2.3,   -3.1,   -3.2,   -3.9,   -4.4,   -4.7,   -4.4,   -5.7,   -5.6,   -6.4,   -6.5,   -4.7,   -4.7,   -4.3,   -3.9,   -3.1,   -3.3,  999.0,  999.0,   -1.8,   -0.5,   -1.0,  999.0,  999.0
2007/09/23 18:30,    0.3,    0.0,    0.2,    1.3,    3.2,  999.0,    1.0,  999.0,    1.0,    0.4,   -1.2,   -2.2,   -1.3,  999.0,  999.0,   -1.6,  999.0,   -0.5,   -0.3,   -0.2,   -0.3,    0.2,    0.3,    1.7,    0.9,    0.6,    0.2,    0.9,    1.2,    0.8,    0.4,    0.5,    0.7,    0.7,    0.8,    0.9,    1.2,    1.2,    0.9,    0.4,    0.1,   -0.2,   -0.8,   -1.1,   -0.3,    0.6,    1.1,    0.7,    0.5,    0.1,   -0.2,   -0.3,   -0.9,   -1.6,   -3.3,   -5.4,   -5.3,   -4.9,   -3.8,   -3.7,   -3.8,   -2.1,  999.0,  999.0,   -1.1,   -1.9,   -2.7,   -2.2,  999.0,   -1.5,  999.0,  999.0,  999.0,  999.0,  999.0,  999.0,  999.0,   -0.3,  999.0,  999.0
2007/09/23 18:40,    0.3,    0.4,    0.7,    0.9,    3.5,  999.0,  999.0,    2.3,    1.6,    0.5,   -0.9,   -0.7,    0.1,  999.0,   -2.2,   -1.0,   -0.7,   -0.1,   -0.3,   -0.4,   -0.4,   -0.4,    0.2,  999.0,    0.5,  999.0,    0.1,    0.6,    0.4,    0.4,    0.4,    0.3,    0.0,    0.4,    0.5,    0.5,    1.2,    1.6,    0.4,    0.2,   -0.5,   -1.3,   -1.8,   -1.2,   -0.1,    0.2,    0.1,   -0.1,   -0.3,   -0.5,   -0.5,   -1.0,   -1.5,   -2.8,   -4.7,   -4.8,   -5.4,  999.0,  999.0,   -4.6,   -5.5,  999.0,  999.0,  999.0,  999.0,  999.0,  999.0,  999.0,  999.0,  999.0,    0.1,   -0.1,  999.0,  999.0,  999.0,    0.0,  999.0,   -0.2,  999.0,  999.0
2007/09/23 18:50,    0.1,    0.5,    0.8,    0.8,  999.0,  999.0,    4.4,  999.0,    1.9,    2.2,    1.0,    0.4,  999.0,  999.0,  999.0,  999.0,  999.0,   -2.4,  999.0,   -1.2,   -1.6,   -1.6,   -0.1,    0.1,  999.0,    0.2,    0.1,    0.3,    0.1,    0.4,    0.2,    0.1,   -0.1,   -0.1,    0.0,    0.2,    1.2,    1.4,    0.7,    0.2,   -0.3,   -0.7,   -1.0,   -0.4,   -0.1,   -0.0,   -0.4,   -0.6,   -0.4,   -0.8,   -1.3,   -1.5,   -2.1,   -3.7,   -3.7,  999.0,   -3.2,  999.0,   -3.6,  999.0,   -2.5,  999.0,  999.0,  999.0,  999.0,   -2.8,  999.0,  999.0,  999.0,  999.0,  999.0,  999.0,  999.0,  999.0,   -0.1,  999.0,  999.0,  999.0,  999.0,  999.0
2007/09/23 19:00,    0.2,    0.4,    0.3,    0.5,  999.0,  999.0,  999.0,  999.0,    2.8,    1.4,    0.5,   -0.2,   -0.2,   -1.0,  999.0,   -4.8,  999.0,  999.0,   -2.5,  999.0,   -1.4,  999.0,   -0.1,    0.4,    0.2,    0.7,    0.3,    0.1,    0.2,    0.2,    0.3,    0.2,    0.1,    0.3,    0.2,   -0.1,    0.4,    1.1,    0.8,    0.3,   -0.6,   -1.2,   -0.6,   -0.3,    0.1,    0.0,   -0.5,   -1.4,   -1.3,   -1.4,   -1.9,   -2.4,   -3.0,   -2.9,   -3.3,   -3.4,   -3.6,   -3.5,   -3.5,   -3.4,   -3.5,   -3.7,   -2.8,  999.0,  999.0,  999.0,  999.0,   -2.1,  999.0,   -0.3,    0.0,  999.0,  999.0,  999.0,  999.0,  999.0,  999.0,  999.0,  999.0,  999.0
2007/09/23 19:10,    0.4,    0.4,    0.2,    0.5,  999.0,  999.0,  999.0,    3.9,  999.0,    1.5,    0.3,   -0.5,   -0.3,  999.0,  999.0,  999.0,  999.0,  999.0,  999.0,  999.0,  999.0,   -0.5,   -0.1,    0.5,    1.6,    2.0,    1.0,    0.4,    0.4,    0.5,    0.2,    0.1,    0.2,    0.3,    0.1,    0.2,    1.3,    1.7,    1.0,    0.3,  999.0,   -1.2,   -0.9,   -0.5,   -0.2,   -0.2,   -0.7,   -1.3,   -1.1,   -1.6,   -1.7,   -2.4,   -2.7,   -3.4,   -3.6,   -3.8,   -3.8,   -3.8,   -3.9,   -4.0,   -4.2,   -5.2,  999.0,  999.0,  999.0,  999.0,  999.0,  999.0,   -0.9,  999.0,   -0.0,  999.0,  999.0,  999.0,  999.0,  999.0,  999.0,  999.0,  999.0,  999.0
2007/09/23 19:20,    0.3,    0.0,    0.1,    0.6,  999.0,  999.0,  999.0,    4.7,    4.5,    1.5,    1.4,    1.3,    1.1,   -0.5,  999.0,  999.0,  999.0,  999.0,   -0.6,  999.0,  999.0,   -1.6,   -0.1,   -0.1,    0.2,    1.1,    1.1,    0.6,    0.5,    0.3,    0.6,    0.5,    0.7,    0.4,    0.0,    0.3,    2.0,    2.4,    1.5,    0.6,    0.0,   -0.9,   -0.8,   -0.5,   -0.2,   -0.3,   -1.1,   -1.4,   -1.8,   -2.4,   -2.6,   -2.7,   -2.9,   -3.3,   -3.9,   -4.0,   -3.6,   -3.6,   -3.5,   -3.9,  999.0,   -3.0,   -2.5,   -4.2,  999.0,  999.0,  999.0,  999.0,  999.0,  999.0,   -0.1,    0.1,  999.0,  999.0,  999.0,  999.0,  999.0,  999.0,  999.0,  999.0
2007/09/23 19:30,    0.0,    0.4,    0.6,    1.0,  999.0,  999.0,  999.0,  999.0,  999.0,    1.3,    1.3,    0.7,    0.6,    0.2,   -0.7,  999.0,   -3.7,   -1.5,   -1.5,  999.0,  999.0,   -1.0,   -0.3,    0.1,    0.2,    1.9,    1.5,    0.5,    0.4,    0.8,    0.7,    0.7,    0.2,    0.1,    0.5,    0.8,    2.1,    2.2,    1.2,    0.5,   -0.4,   -1.2,   -0.8,   -0.6,   -0.3,   -1.0,   -2.0,   -1.9,   -2.2,  999.0,   -3.4,   -3.0,   -3.3,   -3.2,   -3.5,   -3.7,   -4.0,   -4.0,   -4.4,   -4.4,   -4.2,   -4.2,   -4.3,  999.0,  999.0,  999.0,   -3.9,  999.0,  999.0,  999.0,  999.0,  999.0,   -1.1,   -0.7,   -0.4,   -0.0,   -0.9,  999.0,  999.0,  999.0
2007/09/23 19:40,    0.1,    0.2,    1.1,    2.8,  999.0,    6.6,    7.4,  999.0,  999.0,    3.4,    1.9,    1.2,    1.3,    0.5,   -0.3,  999.0,   -1.6,   -1.1,  999.0,  999.0,  999.0,   -0.9,   -0.4,    0.0,    0.0,    0.5,    0.4,    0.1,   -0.1,    0.6,    0.9,    0.6,    0.4,    0.3,    0.2,    0.7,    2.1,    2.6,    1.8,    1.0,   -0.4,   -1.1,   -0.9,   -0.6,   -0.4,   -0.8,   -1.3,   -1.4,   -2.3,   -2.7,   -3.6,   -3.2,   -2.7,   -2.9,   -3.8,   -4.5,   -4.6,   -5.1,   -4.6,   -4.7,   -4.8,   -4.8,   -4.8,   -4.8,   -4.8,   -5.0,   -4.8,   -4.1,   -3.9,   -3.7,  999.0,   -2.7,   -2.5,   -2.2,   -2.0,  999.0,  999.0,   -1.3,  999.0,  999.0
2007/09/23 19:50,  999.0,  999.0,    1.9,    3.2,    6.5,    7.0,    6.6,    5.9,    5.0,    3.9,    2.7,    2.3,    2.7,    1.5,   -0.1,   -1.5,   -1.8,   -1.7,   -1.7,   -1.5,   -0.9,   -0.9,   -0.4,    0.0,    0.4,    0.8,    0.6,    0.2,    0.0,    0.7,    0.8,    0.5,    0.3,    0.3,    0.0,    0.4,    0.9,    0.6,    0.6,   -0.0,  999.0,  999.0,  999.0,   -0.9,   -0.6,   -1.5,   -1.5,   -1.3,   -1.6,   -2.2,   -3.0,   -3.2,   -2.6,   -2.9,   -3.9,   -5.0,   -5.1,   -5.0,   -5.1,   -5.4,   -5.3,   -5.4,   -5.3,   -5.5,   -5.4,   -5.5,   -5.4,   -4.4,   -3.4,   -2.5,   -1.4,   -0.7,   -1.4,  999.0,  999.0,    0.7,  999.0,   -0.4,  999.0,    0.1
2007/09/23 20:00,  999.0,  999.0,  999.0,    1.8,  999.0,  999.0,    7.3,    6.7,    6.2,    4.8,    3.6,    2.6,    1.7,    1.1,   -0.5,   -1.6,   -1.8,   -1.6,   -1.1,   -2.4,   -1.7,   -1.1,   -0.3,    0.1,    0.2,    0.6,    0.2,    0.4,  999.0,  999.0,    0.5,    0.5,    0.4,    0.3,    0.2,    1.3,    2.0,    2.1,  999.0,  999.0,  999.0,  999.0,  999.0,  999.0,   -1.3,  999.0,  999.0,  999.0,   -0.9,   -1.4,   -2.8,   -2.4,   -2.5,   -2.6,   -3.2,   -4.0,   -4.4,   -4.4,   -4.5,   -4.6,   -4.7,   -4.7,   -4.5,   -4.0,   -4.3,   -4.5,   -4.2,   -3.7,   -3.3,   -2.7,   -1.7,  999.0,   -0.2,    0.3,    1.1,    1.1,  999.0,    0.1,    0.0,  999.0
2007/09/23 20:10,  999.0,    0.2,    0.3,  999.0,  999.0,  999.0,  999.0,  999.0,    6.7,    5.7,  999.0,    2.5,    1.4,   -0.1,   -0.2,  999.0,   -1.5,  999.0,   -0.7,  999.0,  999.0,  999.0,  999.0,  999.0,  999.0,    0.5,  999.0,   -0.2,   -0.5,  999.0,    0.7,    0.5,    0.0,    0.1,    0.5,  999.0,    2.0,    2.1,    0.4,  999.0,  999.0,  999.0,  999.0,   -0.4,   -0.9,   -0.8,  999.0,  999.0,  999.0,   -1.8,   -2.0,   -2.3,   -2.3,   -2.4,   -2.9,   -3.6,   -4.4,   -5.3,   -5.6,   -5.4,   -5.1,   -5.2,   -4.8,   -4.6,   -4.0,   -3.1,   -2.7,   -2.1,  999.0,   -0.8,  999.0,  999.0,  999.0,  999.0,    0.7,  999.0,  999.0,    0.1,   -0.0,  999.0
2007/09/23 20:20,  999.0,  999.0,  999.0,    2.3,  999.0,    6.0,    6.3,    7.0,    6.1,    5.2,    4.0,    2.0,    1.2,    0.6,  999.0,  999.0,  999.0,   -1.4,   -1.6,  999.0,   -2.0,   -0.9,   -0.5,  999.0,    0.2,    0.6,    0.7,    0.3,  999.0,   -1.3,   -0.0,    0.4,    0.2,  999.0,    0.4,    1.4,    1.8,    2.3,    1.6,    0.1,  999.0,  999.0,  999.0,  999.0,   -0.3,   -0.4,  999.0,  999.0,   -0.6,   -1.7,   -2.2,   -2.7,   -3.1,   -3.3,   -3.7,   -4.0,   -4.5,   -5.0,   -5.4,   -5.1,   -4.9,   -4.7,   -4.7,   -4.9,   -4.2,   -3.4,   -1.9,  999.0,   -0.3,    0.1,    1.1,    1.0,  999.0,    0.9,    0.7,    0.9,    1.2,   -0.2,   -0.2,    0.1
2007/09/23 20:30,  999.0,    0.3,    1.2,  999.0,  999.0,  999.0,    7.8,    7.7,    7.3,    6.0,    4.5,    3.2,    1.5,    0.9,   -0.4,   -0.0,   -0.6,   -1.1,   -1.3,  999.0,   -1.4,   -0.9,   -0.5,    0.2,    0.4,    1.1,    1.4,    0.5,   -0.0,    0.3,    0.3,    0.2,    0.2,   -0.1,    0.6,    1.2,    1.7,    1.3,    0.7,   -0.3,  999.0,  999.0,  999.0,    0.0,   -0.2,  999.0,  999.0,  999.0,  999.0,   -0.9,   -1.4,   -2.4,   -2.9,   -3.2,   -3.3,   -3.6,   -4.5,   -4.7,   -4.2,   -4.2,   -4.2,   -3.9,   -4.3,   -4.9,   -5.1,  999.0,  999.0,  999.0,   -1.1,   -0.4,    1.0,    1.1,  999.0,    0.4,    0.3,   -0.1,    0.1,  999.0,  999.0,   -0.0
2007/09/23 20:40,  999.0,    1.2,    2.1,    1.4,    5.1,    6.3,    6.6,    6.7,    7.1,    6.1,    5.7,    3.3,    2.1,    1.8,    0.8,    0.5,   -0.0,   -0.5,   -0.9,   -1.3,   -2.1,   -1.6,   -0.8,   -0.4,    0.2,  999.0,    1.1,    0.7,   -0.1,   -0.3,   -0.4,    0.1,   -0.3,    0.1,    0.9,    1.5,    1.2,    1.0,    0.1,   -1.4,   -2.3,   -1.6,    0.0,   -0.0,    0.0,   -0.2,   -0.4,    0.2,    0.7,   -0.3,   -1.4,   -2.3,   -3.6,   -3.9,   -3.3,   -3.2,   -3.7,   -3.5,   -3.7,  999.0,  999.0,  999.0,  999.0,  999.0,  999.0,  999.0,  999.0,  999.0,  999.0,  999.0,  999.0,  999.0,  999.0,  999.0,   -0.1,   -0.2,   -0.3,   -0.1,    0.1,  999.0
2007/09/23 20:50,  999.0,    0.9,    0.1,    0.3,  999.0,    6.2,    7.2,    8.2,    6.8,    6.2,    3.8,  999.0,    1.0,    0.6,    0.2,   -0.2,   -0.3,   -0.9,   -1.4,  999.0,  999.0,   -2.8,   -1.8,   -0.3,    0.0,  999.0,    0.1,    0.3,   -0.1,   -0.4,   -0.2,   -0.0,   -0.2,   -0.0,    0.6,    0.7,    1.2,    1.5,    0.3,   -1.1,   -1.1,   -0.6,    0.4,    0.4,    0.1,   -0.3,   -0.5,   -0.1,    0.5,   -0.6,  999.0,  999.0,  999.0,  999.0,  999.0,   -2.3,  999.0,   -3.0,  999.0,  999.0,  999.0,  999.0,  999.0,  999.0,   -0.3,  999.0,  999.0,  999.0,  999.0,  999.0,  999.0,  999.0,  999.0,  999.0,  999.0,  999.0,  999.0,   -0.2,   -0.3,  999.0
2007/09/23 21:00,    0.1,    0.9,    0.5,    0.2,    4.7,    6.7,    7.1,    7.9,    7.3,    6.2,    4.9,    2.1,    0.8,    1.0,    1.0,    0.3,   -0.2,   -0.8,   -1.0,  999.0,  999.0,  999.0,   -0.9,   -1.2,   -0.2,   -0.0,   -0.3,    0.3,   -0.1,   -0.5,   -0.4,    0.2,    0.2,    0.6,    1.0,  999.0,    0.7,    0.7,    0.4,   -1.4,   -1.4,    0.2,    0.7,    0.4,    0.0,   -0.2,    0.3,    1.1,    0.8,   -0.0,  999.0,  999.0,  999.0,  999.0,  999.0,  999.0,  999.0,  999.0,  999.0,  999.0,  999.0,   -0.9,  999.0,   -0.3,  999.0,  999.0,  999.0,   -0.3,  999.0,  999.0,  999.0,   -1.4,  999.0,  999.0,   -0.1,  999.0,   -0.1,   -0.2,  999.0,  999.0
2007/09/23 21:10,    0.0,    0.7,  999.0,  999.0,  999.0,    5.8,    6.9,    6.7,    6.9,    6.6,    6.5,    4.7,    1.9,    1.4,    2.1,    2.1,    0.6,    0.1,  999.0,   -0.5,   -2.0,   -1.5,   -0.8,   -0.9,   -0.1,    0.4,   -0.2,    0.1,   -0.1,   -0.2,    0.3,   -0.2,   -0.2,    0.2,    0.8,    1.0,    1.0,    0.8,    0.2,   -0.7,   -0.5,    0.4,    1.0,    0.5,    0.2,    0.0,   -0.0,    0.4,   -0.3,  999.0,  999.0,   -2.1,   -2.3,   -1.9,   -4.1,   -2.9,   -2.6,   -3.8,   -3.4,   -2.0,  999.0,  999.0,  999.0,   -1.5,   -0.2,   -0.7,  999.0,   -0.1,   -0.2,   -0.1,   -0.4,    0.0,   -0.2,   -0.0,   -0.1,   -0.1,   -0.5,   -0.1,  999.0,  999.0
2007/09/23 21:20,   -0.0,    0.3,  999.0,    0.1,    2.4,  999.0,    5.8,    6.1,    6.5,    6.0,  999.0,  999.0,    2.2,    0.8,    1.2,    0.9,    0.5,   -0.1,   -1.0,   -1.1,   -1.4,   -1.8,   -1.4,   -1.1,   -0.2,   -0.1,    0.0,   -0.1,   -0.0,    0.3,    0.3,   -0.1,    0.1,    0.4,    1.2,    1.5,    2.1,    1.5,    0.7,    0.2,   -0.1,    0.5,    0.9,    1.0,    0.5,    0.2,    0.0,    0.3,   -0.4,  999.0,  999.0,  999.0,  999.0,   -2.1,   -1.6,   -2.7,   -1.5,   -1.8,   -1.1,  999.0,  999.0,  999.0,    0.6,  999.0,    0.5,   -0.7,   -0.2,   -0.4,    0.6,    1.0,    0.5,  999.0,  999.0,  999.0,   -0.2,  999.0,    0.0,   -0.1,    0.2,    0.2
2007/09/23 21:30,    0.0,    0.2,   -0.1,    0.4,  999.0,  999.0,    6.3,    6.8,    7.1,    6.6,    4.4,    2.8,  999.0,    0.4,    0.5,    0.6,    0.2,   -0.3,   -0.1,    0.2,   -1.0,   -0.8,   -0.7,   -0.6,   -0.3,   -0.3,   -0.5,   -0.1,   -0.2,   -0.1,  999.0,   -0.1,   -0.2,    0.3,    0.8,    1.0,    1.5,    1.4,    0.9,    0.8,    0.7,    0.7,    1.0,    1.2,    1.5,    0.9,    0.8,  999.0,  999.0,   -2.6,   -3.4,   -3.8,   -4.3,   -4.5,   -4.0,   -2.3,   -3.1,  999.0,  999.0,  999.0,  999.0,  999.0,  999.0,  999.0,   -1.2,   -1.8,   -1.1,   -1.4,   -1.3,  999.0,  999.0,  999.0,  999.0,  999.0,  999.0,  999.0,  999.0,  999.0,  999.0,  999.0
2007/09/23 21:40,    0.0,    0.1,   -0.0,  999.0,  999.0,    5.9,    6.3,    7.2,    7.6,    6.6,    5.1,  999.0,    1.3,    0.6,    0.4,  999.0,  999.0,  999.0,   -0.3,  999.0,   -0.6,   -0.7,  999.0,   -0.4,   -0.3,    0.0,   -0.0,    0.2,   -0.2,    0.3,    0.6,    0.6,    0.1,    0.6,    1.2,    1.2,    1.0,    1.2,    0.9,    0.9,    0.7,    1.1,    1.9,    1.6,    0.6,   -0.5,   -0.7,   -2.4,   -3.1,   -3.8,   -4.3,   -4.8,   -4.8,   -5.6,  999.0,  999.0,  999.0,  999.0,  999.0,  999.0,  999.0,  999.0,    0.0,    0.0,  999.0,   -1.3,   -2.1,   -0.5,   -0.3,  999.0,   -0.3,  999.0,  999.0,  999.0,   -0.2,  999.0,  999.0,  999.0,  999.0,    0.0
2007/09/23 21:50,    0.1,    0.2,    0.2,    0.5,    3.8,    5.2,    5.9,    6.7,  999.0,    6.5,    4.8,    2.6,    0.8,    0.6,    1.0,    1.5,    0.8,  999.0,  999.0,   -0.5,   -0.6,  999.0,  999.0,   -0.3,    0.1,    0.4,   -0.2,    0.3,    0.1,    0.5,    0.7,    0.6,    0.2,    1.1,    1.7,    1.5,    1.7,    2.0,    1.6,    1.6,    1.5,    1.9,    2.3,    1.8,    0.6,    0.3,   -0.1,   -0.7,   -0.9,   -2.7,   -3.4,  999.0,  999.0,  999.0,  999.0,  999.0,  999.0,  999.0,  999.0,  999.0,   -0.0,   -1.0,  999.0,   -0.0,   -0.1,  999.0,   -0.6,   -0.5,   -0.2,  999.0,    0.1,  999.0,  999.0,    0.1,   -0.1,   -0.2,  999.0,   -0.1,  999.0,   -0.0
2007/09/23 22:00,    0.1,    0.2,    0.3,  999.0,  999.0,    6.4,    6.6,    6.7,  999.0,  999.0,    4.6,  999.0,    0.9,  999.0,    1.4,    1.6,    1.1,    0.2,   -0.3,    0.1,   -0.3,   -0.4,   -0.2,   -0.1,   -0.2,    0.0,    0.1,  999.0,   -0.6,   -0.8,    0.8,    0.8,    0.6,    2.0,    2.0,    1.7,    1.2,    1.2,    1.5,    1.6,    1.5,    1.7,    2.0,    1.6,    0.8,    0.6,    0.0,   -0.4,   -0.9,  999.0,   -2.6,  999.0,  999.0,  999.0,  999.0,  999.0,  999.0,  999.0,  999.0,  999.0,  999.0,  999.0,  999.0,    0.1,  999.0,   -0.1,   -0.6,   -0.5,  999.0,  999.0,   -0.0,    0.0,  999.0,    0.1,    0.1,    0.0,   -0.5,    0.0,    0.0,   -0.1
2007/09/23 22:10,    0.1,    0.1,    0.0,    0.3,  999.0,    4.6,    5.2,    6.0,  999.0,  999.0,  999.0,    3.5,  999.0,    1.1,    1.4,    1.1,    0.9,  999.0,    0.2,  999.0,   -0.5,   -0.4,   -0.5,   -0.4,   -0.2,    0.2,    0.5,    0.4,  999.0,  999.0,    0.4,    0.7,    1.1,    1.7,    2.2,    2.2,    1.4,    1.3,    0.7,    0.5,    0.8,    1.6,    1.5,    1.5,    1.1,    0.8,   -0.0,   -0.2,   -1.2,   -2.1,   -3.5,   -4.3,  999.0,  999.0,  999.0,  999.0,  999.0,  999.0,  999.0,  999.0,   -0.0,  999.0,  999.0,   -0.1,   -0.1,   -0.3,   -0.6,   -0.6,   -0.2,  999.0,  999.0,   -0.1,    0.0,   -0.0,  999.0,  999.0,  999.0,  999.0,   -0.0,   -0.1
2007/09/23 22:20,    0.2,    0.1,    0.2,    0.3,    2.7,    4.8,    5.1,    5.5,    5.9,    7.0,    6.2,    3.8,    2.5,  999.0,    1.6,    1.0,    1.3,    0.0,   -0.5,   -0.1,   -0.4,   -0.2,   -0.3,    0.0,    0.2,    0.2,    0.5,    1.2,   -0.1,    0.4,    0.6,    0.6,    1.2,    1.6,    1.9,    2.4,    1.6,    1.1,    1.2,    0.1,    0.7,    1.2,    1.3,    1.6,    1.5,    0.3,   -0.0,   -0.2,   -1.5,   -2.0,  999.0,  999.0,  999.0,  999.0,  999.0,  999.0,  999.0,  999.0,  999.0,  999.0,  999.0,  999.0,  999.0,  999.0,  999.0,   -0.3,   -0.5,   -0.4,   -0.1,   -0.1,    0.1,  999.0,  999.0,  999.0,  999.0,  999.0,  999.0,  999.0,  999.0,    0.1
2007/09/23 22:30,   -0.1,    0.3,    0.6,  999.0,    4.0,    5.1,    5.3,    5.2,    5.9,  999.0,  999.0,    3.2,  999.0,  999.0,    0.8,    0.7,    0.6,    0.9,  999.0,   -0.1,   -0.3,    0.1,   -0.4,    0.1,    0.8,    0.5,    0.7,    0.8,    0.9,    0.3,    0.9,    1.2,    1.0,    1.8,    2.5,    2.3,    1.5,    1.7,    1.1,  999.0,    0.8,    0.9,    0.9,    0.9,    0.9,   -0.2,   -0.6,   -0.7,   -1.8,   -3.2,   -2.3,  999.0,  999.0,   -2.1,  999.0,  999.0,  999.0,  999.0,  999.0,  999.0,  999.0,  999.0,  999.0,    0.0,  999.0,  999.0,  999.0,   -0.5,   -0.2,   -0.0,   -0.0,   -0.2,   -0.0,   -0.0,    0.1,    0.1,  999.0,  999.0,    0.0,   -0.0
2007/09/23 22:40,   -0.0,    0.3,    0.3,    0.6,    1.5,    5.0,    5.2,    5.8,    6.8,    7.1,    6.4,    5.0,    2.3,  999.0,  999.0,    1.1,    0.7,    1.3,    0.2,   -0.2,   -0.2,    0.1,   -0.4,   -0.5,    0.2,    0.7,    0.5,    0.6,    1.1,    0.2,    0.3,    0.9,    1.4,    1.6,    1.9,    1.8,    1.2,  999.0,    1.2,    1.1,    0.4,    0.1,    0.6,    1.1,    0.3,   -0.2,   -1.1,  999.0,   -3.4,   -3.6,   -3.7,   -3.6,  999.0,  999.0,  999.0,  999.0,  999.0,  999.0,  999.0,  999.0,  999.0,  999.0,  999.0,  999.0,  999.0,   -0.0,  999.0,   -0.2,  999.0,   -0.0,  999.0,    0.1,   -0.1,    0.0,   -0.1,    0.1,    0.0,    0.0,   -0.1,    0.0
2007/09/23 22:50,    0.0,  999.0,  999.0,  999.0,  999.0,    5.1,    5.8,    6.3,    7.5,    7.4,    6.8,    5.5,  999.0,  999.0,  999.0,   -0.3,    0.5,    0.7,    0.4,  999.0,   -0.1,   -0.1,   -0.1,    0.1,    0.3,   -0.1,    0.7,    0.6,    1.2,    0.9,    0.9,    1.4,    1.5,    1.5,    1.6,    1.5,    0.7,    0.6,    1.0,    0.7,    0.1,  999.0,    0.7,    0.5,   -0.9,   -2.1,   -1.9,   -2.7,   -3.8,   -3.7,   -4.3,   -4.5,   -4.6,  999.0,  999.0,  999.0,  999.0,  999.0,  999.0,  999.0,  999.0,  999.0,  999.0,  999.0,  999.0,  999.0,  999.0,  999.0,   -0.2,    0.0,  999.0,   -0.0,  999.0,  999.0,  999.0,  999.0,   -0.1,  999.0,  999.0,  999.0
2007/09/23 23:00,  999.0,    0.1,    0.2,    0.4,    1.5,  999.0,  999.0,  999.0,    7.1,    7.1,    6.2,    5.3,    3.6,  999.0,    1.3,    0.6,    0.8,  999.0,    1.3,  999.0,  999.0,    0.2,    0.2,   -1.0,    0.0,  999.0,    0.4,   -0.1,    0.6,    0.8,    0.8,    1.2,    1.1,    0.9,    0.9,    0.3,  999.0,  999.0,    0.3,    0.0,   -0.0,    0.0,    0.3,  999.0,   -1.1,   -2.5,   -1.4,  999.0,  999.0,   -3.6,  999.0,   -4.7,   -3.6,   -2.8,   -3.1,  999.0,  999.0,  999.0,  999.0,  999.0,  999.0,  999.0,   -1.7,  999.0,  999.0,  999.0,    0.0,  999.0,   -0.1,  999.0,  999.0,    0.1,  999.0,   -0.1,  999.0,   -0.0,   -0.1,   -0.2,  999.0,  999.0
2007/09/23 23:10,  999.0,   -0.1,  999.0,  999.0,  999.0,    5.6,    6.9,    7.1,    7.0,    6.4,    6.0,    5.7,    3.4,    1.9,    1.9,    1.6,    0.9,  999.0,    0.8,    0.4,   -0.1,   -0.3,   -0.5,   -0.4,   -0.2,   -0.4,    0.3,    0.7,    0.9,    1.5,    2.1,    2.1,    2.0,    2.2,    1.6,    0.2,    0.1,   -0.2,   -0.4,   -0.1,    0.3,    0.6,    0.8,  999.0,    0.1,  999.0,  999.0,  999.0,   -0.1,    0.7,   -0.9,   -1.7,   -1.9,   -1.4,  999.0,   -0.3,  999.0,  999.0,  999.0,  999.0,  999.0,  999.0,  999.0,  999.0,   -0.6,   -0.0,    0.1,    0.1,   -0.0,   -0.1,   -0.1,    0.1,    0.1,    0.0,   -0.0,  999.0,  999.0,   -0.1,  999.0,  999.0
2007/09/23 23:20,  999.0,    0.1,  999.0,  999.0,  999.0,    5.4,    6.7,    8.1,    8.3,    7.5,    6.4,    4.9,  999.0,    1.8,    1.1,    1.1,    0.7,    0.4,    0.6,  999.0,  999.0,  999.0,   -0.1,    0.2,    0.0,   -0.1,   -0.0,    0.5,    1.3,    1.7,    2.7,    3.0,    2.4,    1.4,    0.8,    0.2,    0.4,    0.2,    0.1,    0.4,    0.7,    1.4,    1.6,    0.9,    0.3,   -0.2,   -0.5,   -0.9,   -1.2,   -1.8,   -1.7,   -1.7,   -1.2,  999.0,  999.0,  999.0,  999.0,  999.0,   -0.4,  999.0,   -0.6,   -0.8,  999.0,  999.0,  999.0,  999.0,   -0.2,  999.0,  999.0,  999.0,    0.1,  999.0,  999.0,  999.0,  999.0,  999.0,   -0.2,  999.0,    0.1,  999.0
2007/09/23 23:30,  999.0,  999.0,  999.0,  999.0,    4.3,    5.9,    7.2,    8.8,    8.8,    8.4,    7.2,    5.5,    4.3,  999.0,    1.7,    0.6,    0.7,    0.1,    0.9,    0.7,    0.5,    0.3,    0.0,    0.1,    0.3,   -0.1,    0.3,    0.2,  999.0,    1.6,    2.0,    2.1,    0.8,    0.5,   -0.0,    0.3,    0.5,   -0.0,    0.1,    0.7,    1.8,    2.0,    1.9,    1.5,    0.6,    0.5,   -1.2,   -1.0,   -1.5,  999.0,   -1.0,  999.0,   -1.1,   -0.4,   -1.6,   -0.8,  999.0,  999.0,  999.0,  999.0,  999.0,  999.0,  999.0,  999.0,  999.0,    0.0,  999.0,  999.0,  999.0,   -0.1,  999.0,  999.0,    0.1,    0.4,    0.0,  999.0,  999.0,  999.0,  999.0,   -0.1
2007/09/23 23:40,  999.0,  999.0,  999.0,  999.0,    2.9,    5.7,    8.0,    9.0,    8.5,    8.1,    7.0,    6.2,  999.0,    3.9,    1.9,  999.0,  999.0,    0.5,  999.0,    0.8,    0.6,    0.3,    0.2,    0.6,    0.4,    0.4,    0.1,    0.0,    0.7,    1.8,    2.7,    2.2,    0.9,    0.5,    0.4,    0.6,    0.8,    0.4,    0.6,    1.1,    1.7,    2.0,    2.7,    1.2,  999.0,   -1.2,   -3.7,  999.0,  999.0,  999.0,  999.0,  999.0,  999.0,  999.0,  999.0,  999.0,  999.0,  999.0,  999.0,  999.0,  999.0,  999.0,  999.0,  999.0,  999.0,  999.0,  999.0,  999.0,  999.0,  999.0,  999.0,  999.0,  999.0,  999.0,  999.0,   -0.0,  999.0,  999.0,  999.0,  999.0
2007/09/23 23:50,  999.0,    0.1,  999.0,  999.0,    4.5,    4.6,    6.8,    9.5,    5.7,    4.8,    6.6,    5.4,  999.0,  999.0,  999.0,   -0.4,  999.0,  999.0,  999.0,  999.0,  999.0,  999.0,    0.2,    0.1,    0.1,    0.0,   -0.1,    0.2,    0.4,    2.8,    3.4,    1.7,    0.5,    0.9,    1.1,    1.1,    0.3,    0.6,    0.4,    0.8,    1.5,  999.0,    1.9,    0.1,   -0.7,   -1.7,   -1.9,   -1.8,   -2.2,   -1.9,   -2.4,  999.0,  999.0,  999.0,   -1.4,  999.0,  999.0,  999.0,  999.0,  999.0,  999.0,  999.0,    0.2,  999.0,  999.0,  999.0,  999.0,  999.0,  999.0,   -0.1,  999.0,   -0.0,  999.0,  999.0,  999.0,    0.1,  999.0,    0.1,  999.0,    0.0
